GFSCGP_prec_precacc_036.txt.gz
Total_Precipitation_Accumulation
0.01 0.00 0.00 0.00 0.00 0.00 0.00 0.00 0.00 0.00 0.00 0.00 0.00 0.00 0.00 0.00 0.00 0.00 0.00 0.00 0.01 0.00 0.01 0.05 0.08 0.11 0.12 0.19 0.54 0.68 0.82 0.62 0.28 0.09 0.06 0.04 0.04 0.04 0.02 0.00 0.00 0.00 0.00 0.00
0.00 0.00 0.00 0.00 0.00 0.00 0.00 0.00 0.00 0.00 0.00 0.00 0.00 0.00 0.00 0.00 0.00 0.00 0.00 0.00 0.00 0.00 0.00 0.01 0.02 0.08 0.22 0.43 0.47 0.38 0.31 0.16 0.10 0.07 0.07 0.05 0.03 0.01 0.00 0.00 0.00 0.00 0.00 0.00
0.01 0.00 0.00 0.00 0.00 0.00 0.00 0.00 0.00 0.00 0.00 0.00 0.00 0.00 0.00 0.00 0.00 0.00 0.00 0.00 0.00 0.01 0.03 0.05 0.09 0.12 0.12 0.10 0.06 0.08 0.11 0.06 0.09 0.06 0.01 0.00 0.00 0.00 0.00 0.00 0.00 0.00 0.00 0.00
0.01 0.00 0.00 0.00 0.00 0.00 0.00 0.00 0.00 0.00 0.00 0.00 0.00 0.00 0.02 0.01 0.00 0.00 0.00 0.00 0.01 0.02 0.03 0.02 0.01 0.01 0.00 0.05 0.08 0.12 0.08 0.03 0.02 0.00 0.00 0.00 0.00 0.00 0.00 0.00 0.00 0.00 0.00 0.00
0.01 0.00 0.00 0.00 0.00 0.00 0.00 0.00 0.00 0.00 0.00 0.06 0.02 0.01 0.02 0.02 0.00 0.00 0.00 0.00 0.00 0.00 0.00 0.01 0.00 0.02 0.04 0.04 0.08 0.08 0.04 0.02 0.00 0.00 0.00 0.00 0.00 0.00 0.00 0.00 0.00 0.00 0.00 0.00
0.01 0.00 0.01 0.03 0.00 0.00 0.00 0.00 0.00 0.00 0.00 0.01 0.01 0.03 0.02 0.01 0.01 0.03 0.02 0.00 0.00 0.01 0.06 0.03 0.00 0.01 0.03 0.05 0.15 0.08 0.03 0.01 0.00 0.00 0.00 0.00 0.00 0.00 0.00 0.00 0.00 0.00 0.00 0.00
0.00 0.00 0.00 0.00 0.00 0.00 0.00 0.00 0.00 0.07 0.01 0.01 0.03 0.03 0.01 0.00 0.02 0.11 0.07 0.00 0.00 0.00 0.03 0.01 0.01 0.00 0.00 0.04 0.08 0.04 0.01 0.00 0.00 0.00 0.00 0.00 0.00 0.00 0.00 0.00 0.00 0.00 0.01 0.01
0.00 0.00 0.00 0.00 0.00 0.01 0.00 0.00 0.01 0.09 0.06 0.02 0.02 0.01 0.00 0.00 0.00 0.00 0.00 0.00 0.00 0.00 0.00 0.00 0.01 0.00 0.00 0.04 0.02 0.02 0.00 0.00 0.00 0.00 0.00 0.00 0.00 0.00 0.00 0.00 0.00 0.00 0.00 0.00
0.03 0.02 0.01 0.00 0.00 0.00 0.00 0.00 0.00 0.00 0.01 0.00 0.00 0.00 0.00 0.00 0.00 0.00 0.00 0.00 0.00 0.00 0.00 0.00 0.00 0.00 0.00 0.03 0.00 0.00 0.00 0.00 0.00 0.00 0.00 0.00 0.00 0.00 0.00 0.00 0.00 0.00 0.00 0.00
0.06 0.11 0.02 0.00 0.00 0.00 0.00 0.00 0.00 0.00 0.00 0.00 0.00 0.00 0.01 0.01 0.00 0.00 0.00 0.00 0.00 0.00 0.00 0.00 0.00 0.00 0.00 0.00 0.00 0.00 0.00 0.00 0.00 0.00 0.00 0.00 0.00 0.00 0.00 0.00 0.00 0.00 0.00 0.00
0.00 0.05 0.07 0.00 0.00 0.00 0.00 0.00 0.00 0.00 0.00 0.00 0.00 0.00 0.00 0.00 0.00 0.00 0.00 0.00 0.00 0.00 0.00 0.00 0.00 0.00 0.00 0.00 0.00 0.00 0.00 0.00 0.00 0.00 0.00 0.00 0.00 0.00 0.00 0.00 0.00 0.00 0.00 0.00
0.00 0.00 0.01 0.00 0.00 0.00 0.00 0.00 0.01 0.00 0.00 0.00 0.00 0.00 0.00 0.00 0.00 0.00 0.00 0.00 0.00 0.00 0.00 0.00 0.00 0.00 0.00 0.00 0.00 0.00 0.00 0.00 0.00 0.00 0.00 0.00 0.00 0.00 0.00 0.00 0.00 0.00 0.01 0.02
0.00 0.00 0.00 0.00 0.00 0.01 0.00 0.00 0.00 0.00 0.00 0.00 0.01 0.00 0.00 0.00 0.00 0.00 0.00 0.00 0.00 0.00 0.00 0.00 0.00 0.00 0.00 0.00 0.00 0.00 0.00 0.00 0.00 0.00 0.00 0.00 0.00 0.00 0.00 0.01 0.01 0.01 0.01 0.02
0.00 0.00 0.00 0.00 0.00 0.00 0.00 0.00 0.00 0.00 0.00 0.00 0.00 0.00 0.00 0.01 0.00 0.00 0.00 0.00 0.00 0.00 0.00 0.00 0.00 0.00 0.00 0.00 0.00 0.00 0.00 0.00 0.00 0.00 0.00 0.00 0.00 0.01 0.00 0.01 0.01 0.02 0.03 0.02
0.00 0.00 0.00 0.00 0.00 0.00 0.00 0.00 0.00 0.00 0.00 0.00 0.00 0.00 0.00 0.00 0.00 0.00 0.00 0.00 0.00 0.00 0.00 0.01 0.00 0.01 0.00 0.00 0.00 0.01 0.01 0.01 0.01 0.01 0.01 0.01 0.01 0.01 0.03 0.04 0.03 0.03 0.02 0.01
0.00 0.00 0.00 0.00 0.00 0.00 0.00 0.00 0.00 0.00 0.00 0.00 0.00 0.00 0.00 0.00 0.00 0.00 0.00 0.00 0.00 0.00 0.00 0.00 0.00 0.00 0.02 0.02 0.02 0.01 0.01 0.01 0.01 0.01 0.02 0.02 0.01 0.03 0.04 0.03 0.03 0.01 0.02 0.01
0.00 0.00 0.00 0.00 0.00 0.00 0.00 0.00 0.00 0.00 0.00 0.00 0.00 0.00 0.00 0.00 0.00 0.00 0.00 0.00 0.00 0.00 0.00 0.00 0.00 0.00 0.00 0.01 0.03 0.02 0.02 0.01 0.01 0.02 0.01 0.01 0.03 0.03 0.02 0.02 0.02 0.02 0.03 0.03
0.00 0.00 0.00 0.00 0.00 0.00 0.00 0.00 0.00 0.00 0.00 0.00 0.00 0.00 0.00 0.00 0.00 0.00 0.00 0.00 0.00 0.00 0.00 0.00 0.00 0.00 0.00 0.00 0.02 0.02 0.02 0.02 0.01 0.01 0.01 0.01 0.02 0.02 0.04 0.06 0.03 0.08 0.06 0.00
0.01 0.00 0.00 0.00 0.00 0.00 0.00 0.00 0.00 0.00 0.00 0.00 0.00 0.00 0.00 0.00 0.00 0.00 0.00 0.00 0.00 0.00 0.00 0.00 0.00 0.00 0.00 0.00 0.00 0.02 0.01 0.01 0.00 0.00 0.00 0.01 0.02 0.02 0.02 0.06 0.09 0.04 0.01 0.00
0.00 0.00 0.00 0.00 0.00 0.00 0.00 0.00 0.00 0.00 0.00 0.00 0.00 0.00 0.00 0.00 0.01 0.00 0.00 0.00 0.00 0.00 0.00 0.00 0.00 0.00 0.00 0.00 0.00 0.00 0.00 0.00 0.00 0.00 0.00 0.01 0.03 0.08 0.09 0.06 0.02 0.00 0.00 0.00
0.00 0.00 0.00 0.00 0.01 0.00 0.00 0.00 0.00 0.02 0.04 0.00 0.00 0.00 0.00 0.00 0.01 0.00 0.00 0.00 0.00 0.00 0.00 0.00 0.00 0.00 0.00 0.00 0.00 0.00 0.00 0.01 0.01 0.02 0.03 0.08 0.10 0.05 0.02 0.00 0.00 0.00 0.00 0.00
0.00 0.00 0.00 0.00 0.00 0.01 0.00 0.00 0.01 0.02 0.02 0.00 0.00 0.00 0.00 0.00 0.00 0.00 0.00 0.00 0.00 0.00 0.00 0.00 0.00 0.00 0.00 0.00 0.00 0.01 0.02 0.03 0.03 0.03 0.04 0.04 0.01 0.00 0.00 0.00 0.00 0.00 0.00 0.00
0.00 0.00 0.00 0.01 0.00 0.00 0.00 0.02 0.02 0.01 0.01 0.00 0.00 0.00 0.00 0.00 0.00 0.00 0.00 0.00 0.00 0.00 0.00 0.00 0.00 0.00 0.00 0.00 0.02 0.04 0.03 0.03 0.03 0.01 0.01 0.01 0.00 0.00 0.00 0.00 0.00 0.00 0.00 0.00
0.00 0.00 0.00 0.01 0.00 0.00 0.01 0.01 0.01 0.00 0.00 0.00 0.00 0.01 0.01 0.00 0.00 0.00 0.00 0.01 0.01 0.00 0.00 0.02 0.02 0.02 0.04 0.05 0.04 0.03 0.02 0.01 0.01 0.01 0.00 0.00 0.00 0.00 0.00 0.00 0.00 0.00 0.00 0.00
0.00 0.00 0.01 0.01 0.00 0.00 0.01 0.01 0.00 0.00 0.01 0.01 0.01 0.00 0.00 0.00 0.00 0.01 0.01 0.02 0.03 0.04 0.04 0.04 0.05 0.06 0.03 0.01 0.01 0.01 0.01 0.01 0.00 0.00 0.00 0.00 0.01 0.00 0.00 0.00 0.00 0.00 0.00 0.00
0.00 0.00 0.01 0.01 0.01 0.01 0.03 0.02 0.01 0.02 0.02 0.02 0.00 0.00 0.00 0.00 0.00 0.01 0.03 0.04 0.03 0.02 0.03 0.03 0.02 0.01 0.01 0.01 0.01 0.00 0.00 0.00 0.00 0.00 0.00 0.02 0.02 0.01 0.01 0.00 0.00 0.00 0.00 0.00

GFSCGP_prec_precacc_042.txt.gz
Total_Precipitation_Accumulation
0.01 0.00 0.00 0.00 0.00 0.00 0.00 0.00 0.00 0.00 0.00 0.00 0.00 0.00 0.00 0.00 0.00 0.00 0.00 0.00 0.01 0.00 0.01 0.05 0.08 0.11 0.12 0.19 0.54 0.68 0.82 0.62 0.28 0.09 0.06 0.04 0.04 0.05 0.02 0.00 0.00 0.00 0.00 0.00
0.00 0.00 0.00 0.00 0.00 0.00 0.00 0.00 0.00 0.00 0.00 0.00 0.00 0.00 0.00 0.00 0.00 0.00 0.00 0.00 0.00 0.00 0.00 0.01 0.02 0.08 0.22 0.43 0.48 0.40 0.31 0.16 0.10 0.07 0.07 0.05 0.03 0.01 0.00 0.00 0.00 0.00 0.00 0.00
0.01 0.00 0.00 0.00 0.00 0.00 0.00 0.00 0.00 0.00 0.00 0.00 0.00 0.00 0.00 0.00 0.00 0.00 0.00 0.02 0.00 0.01 0.03 0.05 0.09 0.12 0.12 0.10 0.06 0.08 0.13 0.07 0.09 0.06 0.01 0.00 0.00 0.00 0.00 0.00 0.00 0.00 0.00 0.00
0.01 0.00 0.00 0.00 0.00 0.00 0.00 0.00 0.00 0.00 0.00 0.00 0.00 0.00 0.02 0.01 0.00 0.00 0.00 0.01 0.02 0.03 0.03 0.02 0.01 0.01 0.00 0.05 0.08 0.12 0.10 0.09 0.03 0.01 0.00 0.00 0.00 0.00 0.00 0.00 0.00 0.00 0.00 0.00
0.01 0.00 0.00 0.00 0.00 0.00 0.00 0.00 0.00 0.00 0.00 0.06 0.02 0.01 0.02 0.02 0.00 0.00 0.00 0.00 0.01 0.00 0.00 0.02 0.01 0.03 0.05 0.04 0.08 0.09 0.10 0.13 0.04 0.02 0.00 0.01 0.01 0.00 0.00 0.00 0.00 0.00 0.00 0.00
0.01 0.00 0.01 0.03 0.00 0.00 0.00 0.00 0.00 0.00 0.00 0.01 0.01 0.03 0.02 0.01 0.01 0.03 0.02 0.00 0.00 0.01 0.08 0.06 0.04 0.06 0.06 0.07 0.20 0.11 0.10 0.08 0.07 0.04 0.01 0.04 0.07 0.06 0.03 0.03 0.01 0.00 0.00 0.00
0.00 0.00 0.00 0.00 0.00 0.00 0.00 0.00 0.00 0.07 0.01 0.01 0.03 0.03 0.01 0.00 0.02 0.11 0.07 0.00 0.00 0.01 0.04 0.02 0.02 0.05 0.05 0.09 0.20 0.10 0.04 0.05 0.04 0.03 0.03 0.03 0.10 0.07 0.07 0.04 0.02 0.01 0.01 0.01
0.00 0.00 0.00 0.00 0.00 0.01 0.00 0.00 0.01 0.09 0.06 0.02 0.02 0.01 0.00 0.00 0.00 0.00 0.00 0.00 0.00 0.00 0.00 0.01 0.02 0.04 0.07 0.17 0.18 0.08 0.03 0.05 0.04 0.01 0.02 0.01 0.05 0.08 0.11 0.07 0.04 0.01 0.00 0.00
0.03 0.02 0.01 0.00 0.00 0.00 0.00 0.00 0.00 0.00 0.01 0.00 0.00 0.00 0.00 0.00 0.00 0.00 0.00 0.00 0.00 0.00 0.00 0.00 0.01 0.00 0.02 0.23 0.16 0.04 0.02 0.01 0.02 0.02 0.01 0.01 0.04 0.10 0.22 0.10 0.03 0.01 0.00 0.00
0.06 0.11 0.02 0.00 0.00 0.00 0.00 0.00 0.00 0.00 0.00 0.00 0.00 0.00 0.01 0.01 0.00 0.00 0.00 0.00 0.00 0.00 0.00 0.00 0.00 0.00 0.01 0.06 0.03 0.00 0.00 0.00 0.00 0.00 0.04 0.07 0.10 0.12 0.11 0.08 0.03 0.02 0.01 0.01
0.00 0.05 0.07 0.00 0.00 0.00 0.00 0.00 0.00 0.00 0.00 0.00 0.00 0.00 0.00 0.00 0.00 0.00 0.00 0.00 0.00 0.00 0.00 0.00 0.00 0.00 0.00 0.00 0.00 0.00 0.00 0.00 0.00 0.00 0.01 0.06 0.08 0.09 0.09 0.06 0.03 0.01 0.00 0.01
0.00 0.00 0.01 0.00 0.00 0.00 0.00 0.00 0.01 0.00 0.00 0.00 0.00 0.00 0.00 0.00 0.00 0.00 0.00 0.00 0.00 0.00 0.00 0.00 0.00 0.00 0.00 0.00 0.00 0.01 0.01 0.02 0.03 0.07 0.08 0.13 0.11 0.08 0.04 0.03 0.01 0.00 0.01 0.02
0.00 0.00 0.00 0.00 0.00 0.01 0.00 0.00 0.00 0.00 0.00 0.00 0.01 0.00 0.00 0.00 0.00 0.00 0.00 0.00 0.00 0.00 0.00 0.00 0.00 0.00 0.00 0.00 0.00 0.04 0.02 0.03 0.12 0.13 0.09 0.08 0.05 0.03 0.02 0.02 0.01 0.01 0.03 0.04
0.00 0.00 0.00 0.00 0.00 0.00 0.00 0.00 0.00 0.00 0.00 0.00 0.00 0.00 0.00 0.01 0.00 0.00 0.00 0.00 0.00 0.00 0.00 0.00 0.01 0.00 0.00 0.00 0.05 0.08 0.06 0.11 0.17 0.12 0.08 0.06 0.03 0.03 0.02 0.02 0.02 0.02 0.04 0.03
0.00 0.00 0.00 0.00 0.00 0.00 0.00 0.00 0.00 0.00 0.00 0.00 0.00 0.00 0.00 0.00 0.00 0.00 0.00 0.00 0.00 0.00 0.00 0.01 0.00 0.01 0.02 0.03 0.08 0.09 0.10 0.09 0.07 0.08 0.07 0.04 0.03 0.02 0.03 0.05 0.04 0.04 0.03 0.02
0.00 0.00 0.00 0.00 0.00 0.00 0.00 0.00 0.00 0.00 0.00 0.00 0.00 0.00 0.00 0.00 0.00 0.00 0.00 0.00 0.00 0.00 0.00 0.00 0.00 0.00 0.02 0.03 0.03 0.03 0.04 0.05 0.04 0.04 0.04 0.04 0.02 0.04 0.05 0.03 0.03 0.02 0.03 0.03
0.00 0.00 0.00 0.00 0.00 0.00 0.00 0.00 0.00 0.00 0.00 0.00 0.00 0.00 0.00 0.00 0.00 0.00 0.00 0.00 0.00 0.00 0.00 0.00 0.00 0.00 0.00 0.01 0.03 0.02 0.02 0.01 0.02 0.04 0.05 0.04 0.04 0.04 0.02 0.03 0.02 0.02 0.07 0.21
0.00 0.00 0.00 0.00 0.00 0.00 0.00 0.00 0.00 0.00 0.00 0.00 0.00 0.00 0.00 0.00 0.00 0.00 0.00 0.00 0.00 0.00 0.00 0.00 0.00 0.00 0.00 0.00 0.02 0.02 0.02 0.02 0.02 0.02 0.02 0.02 0.02 0.02 0.04 0.06 0.04 0.19 0.31 0.17
0.01 0.00 0.00 0.00 0.00 0.00 0.00 0.00 0.00 0.00 0.00 0.00 0.00 0.00 0.00 0.00 0.00 0.00 0.00 0.00 0.00 0.00 0.00 0.00 0.00 0.00 0.00 0.00 0.00 0.02 0.01 0.01 0.00 0.00 0.00 0.02 0.02 0.02 0.03 0.17 0.37 0.31 0.14 0.03
0.00 0.01 0.00 0.00 0.00 0.00 0.00 0.00 0.00 0.00 0.00 0.00 0.00 0.00 0.00 0.00 0.01 0.00 0.00 0.00 0.00 0.00 0.00 0.00 0.00 0.00 0.00 0.00 0.00 0.00 0.00 0.00 0.00 0.00 0.00 0.01 0.07 0.21 0.33 0.28 0.09 0.01 0.00 0.00
0.00 0.00 0.00 0.00 0.01 0.00 0.00 0.00 0.00 0.02 0.04 0.00 0.00 0.00 0.00 0.00 0.01 0.00 0.00 0.00 0.00 0.00 0.00 0.00 0.00 0.00 0.00 0.00 0.00 0.00 0.00 0.01 0.02 0.03 0.07 0.14 0.18 0.12 0.05 0.01 0.00 0.00 0.00 0.00
0.00 0.00 0.00 0.00 0.00 0.01 0.00 0.00 0.01 0.02 0.02 0.00 0.00 0.00 0.00 0.00 0.00 0.00 0.00 0.00 0.00 0.00 0.00 0.00 0.00 0.00 0.00 0.00 0.00 0.01 0.02 0.03 0.03 0.03 0.05 0.05 0.02 0.00 0.00 0.00 0.00 0.00 0.00 0.00
0.00 0.00 0.00 0.01 0.00 0.00 0.00 0.02 0.02 0.01 0.01 0.00 0.00 0.00 0.00 0.00 0.00 0.00 0.00 0.00 0.00 0.00 0.00 0.00 0.00 0.00 0.00 0.00 0.02 0.04 0.03 0.03 0.03 0.01 0.01 0.01 0.00 0.00 0.00 0.00 0.00 0.00 0.00 0.00
0.00 0.00 0.00 0.01 0.00 0.00 0.01 0.01 0.01 0.00 0.00 0.00 0.00 0.01 0.01 0.00 0.00 0.00 0.00 0.01 0.01 0.00 0.00 0.02 0.02 0.02 0.04 0.05 0.04 0.03 0.02 0.01 0.01 0.01 0.00 0.00 0.00 0.00 0.00 0.00 0.00 0.00 0.00 0.00
0.00 0.00 0.01 0.01 0.00 0.00 0.01 0.01 0.00 0.00 0.01 0.01 0.01 0.00 0.00 0.00 0.00 0.01 0.01 0.02 0.03 0.04 0.04 0.04 0.05 0.06 0.03 0.01 0.01 0.01 0.01 0.01 0.00 0.00 0.00 0.00 0.01 0.00 0.00 0.00 0.00 0.00 0.00 0.00
0.00 0.00 0.01 0.01 0.01 0.01 0.03 0.02 0.01 0.02 0.02 0.02 0.00 0.00 0.00 0.00 0.00 0.01 0.03 0.04 0.03 0.02 0.03 0.03 0.02 0.01 0.01 0.01 0.01 0.00 0.00 0.00 0.00 0.00 0.00 0.02 0.02 0.01 0.01 0.00 0.00 0.00 0.00 0.00

GFSCGP_prec_precacc_045.txt.gz
Total_Precipitation_Accumulation
0.01 0.00 0.00 0.00 0.00 0.00 0.00 0.00 0.00 0.00 0.00 0.00 0.00 0.00 0.00 0.00 0.00 0.00 0.00 0.00 0.01 0.00 0.01 0.05 0.08 0.11 0.12 0.19 0.54 0.68 0.82 0.62 0.28 0.09 0.06 0.04 0.04 0.06 0.02 0.01 0.00 0.00 0.00 0.00
0.00 0.00 0.00 0.00 0.00 0.00 0.00 0.00 0.00 0.00 0.00 0.00 0.00 0.00 0.00 0.00 0.00 0.00 0.00 0.00 0.00 0.00 0.00 0.01 0.02 0.08 0.22 0.43 0.48 0.40 0.31 0.16 0.10 0.07 0.07 0.05 0.03 0.01 0.00 0.00 0.00 0.00 0.00 0.00
0.01 0.00 0.00 0.00 0.00 0.00 0.00 0.00 0.00 0.00 0.00 0.00 0.00 0.00 0.00 0.00 0.00 0.00 0.00 0.02 0.00 0.01 0.03 0.05 0.09 0.12 0.12 0.10 0.06 0.08 0.13 0.07 0.09 0.06 0.01 0.00 0.00 0.00 0.00 0.00 0.00 0.00 0.00 0.00
0.01 0.00 0.00 0.00 0.00 0.00 0.00 0.00 0.00 0.00 0.00 0.00 0.00 0.00 0.02 0.01 0.00 0.00 0.00 0.01 0.02 0.03 0.03 0.02 0.01 0.01 0.00 0.05 0.08 0.12 0.10 0.09 0.03 0.01 0.00 0.00 0.00 0.00 0.02 0.05 0.02 0.01 0.00 0.00
0.01 0.00 0.00 0.00 0.00 0.00 0.00 0.00 0.00 0.00 0.00 0.06 0.02 0.01 0.02 0.02 0.00 0.00 0.00 0.00 0.01 0.00 0.00 0.02 0.01 0.03 0.05 0.04 0.08 0.09 0.10 0.13 0.04 0.02 0.00 0.01 0.01 0.01 0.03 0.04 0.02 0.00 0.00 0.00
0.01 0.00 0.01 0.03 0.00 0.00 0.00 0.00 0.00 0.00 0.00 0.01 0.01 0.03 0.02 0.01 0.01 0.03 0.02 0.00 0.00 0.01 0.08 0.06 0.04 0.06 0.06 0.07 0.20 0.11 0.11 0.08 0.07 0.04 0.01 0.04 0.07 0.06 0.04 0.05 0.02 0.01 0.00 0.01
0.00 0.00 0.00 0.00 0.00 0.00 0.00 0.00 0.00 0.07 0.01 0.01 0.03 0.03 0.01 0.00 0.02 0.11 0.07 0.00 0.00 0.01 0.04 0.02 0.02 0.05 0.05 0.09 0.20 0.10 0.04 0.06 0.04 0.03 0.04 0.05 0.11 0.07 0.07 0.05 0.04 0.04 0.03 0.02
0.00 0.00 0.00 0.00 0.00 0.01 0.00 0.00 0.01 0.09 0.06 0.02 0.02 0.01 0.00 0.00 0.00 0.00 0.00 0.00 0.00 0.00 0.00 0.01 0.02 0.05 0.07 0.17 0.18 0.08 0.03 0.06 0.06 0.08 0.05 0.03 0.06 0.09 0.12 0.10 0.08 0.05 0.03 0.02
0.03 0.02 0.01 0.00 0.00 0.00 0.00 0.00 0.00 0.00 0.01 0.00 0.00 0.00 0.00 0.00 0.00 0.00 0.00 0.00 0.00 0.00 0.00 0.00 0.01 0.00 0.02 0.23 0.16 0.04 0.02 0.01 0.03 0.10 0.05 0.02 0.05 0.11 0.26 0.16 0.09 0.05 0.03 0.02
0.06 0.11 0.02 0.00 0.00 0.00 0.00 0.00 0.00 0.00 0.00 0.00 0.00 0.00 0.01 0.01 0.00 0.00 0.00 0.00 0.00 0.00 0.00 0.00 0.00 0.00 0.01 0.06 0.03 0.01 0.00 0.01 0.00 0.01 0.07 0.08 0.12 0.14 0.16 0.16 0.12 0.09 0.04 0.02
0.00 0.05 0.07 0.00 0.00 0.00 0.00 0.00 0.00 0.00 0.00 0.00 0.00 0.00 0.00 0.00 0.00 0.00 0.00 0.00 0.00 0.00 0.00 0.00 0.00 0.00 0.00 0.00 0.00 0.00 0.00 0.01 0.01 0.01 0.03 0.07 0.12 0.17 0.22 0.19 0.13 0.06 0.03 0.02
0.00 0.00 0.01 0.00 0.00 0.00 0.00 0.00 0.01 0.00 0.00 0.00 0.00 0.00 0.00 0.00 0.00 0.00 0.00 0.00 0.00 0.00 0.00 0.00 0.00 0.00 0.00 0.00 0.00 0.01 0.01 0.03 0.05 0.09 0.12 0.19 0.20 0.20 0.16 0.13 0.08 0.04 0.03 0.03
0.00 0.00 0.00 0.00 0.00 0.01 0.00 0.00 0.00 0.00 0.00 0.00 0.01 0.00 0.00 0.00 0.00 0.00 0.00 0.00 0.00 0.00 0.00 0.00 0.00 0.00 0.00 0.00 0.00 0.04 0.05 0.06 0.15 0.16 0.14 0.14 0.12 0.10 0.10 0.09 0.07 0.04 0.04 0.04
0.00 0.00 0.00 0.00 0.00 0.00 0.00 0.00 0.00 0.00 0.00 0.00 0.00 0.00 0.00 0.01 0.00 0.00 0.00 0.00 0.00 0.00 0.00 0.00 0.01 0.00 0.00 0.01 0.06 0.08 0.09 0.13 0.20 0.16 0.12 0.10 0.10 0.12 0.07 0.05 0.04 0.03 0.04 0.03
0.00 0.00 0.00 0.00 0.00 0.00 0.00 0.00 0.00 0.00 0.00 0.00 0.00 0.00 0.00 0.00 0.00 0.00 0.00 0.00 0.00 0.00 0.00 0.01 0.00 0.01 0.02 0.04 0.09 0.09 0.10 0.10 0.09 0.09 0.09 0.07 0.05 0.03 0.04 0.05 0.04 0.04 0.03 0.02
0.00 0.00 0.00 0.00 0.00 0.00 0.00 0.00 0.00 0.00 0.00 0.00 0.00 0.00 0.00 0.00 0.00 0.00 0.00 0.00 0.00 0.00 0.00 0.00 0.00 0.00 0.02 0.03 0.03 0.03 0.04 0.05 0.04 0.04 0.04 0.04 0.03 0.04 0.05 0.03 0.03 0.02 0.04 0.04
0.00 0.00 0.00 0.00 0.00 0.00 0.00 0.00 0.00 0.00 0.00 0.00 0.00 0.00 0.00 0.00 0.00 0.00 0.00 0.00 0.00 0.00 0.00 0.00 0.00 0.00 0.00 0.01 0.03 0.02 0.02 0.01 0.02 0.04 0.05 0.04 0.04 0.04 0.02 0.03 0.02 0.02 0.08 0.25
0.00 0.00 0.00 0.00 0.00 0.00 0.00 0.00 0.00 0.00 0.00 0.00 0.00 0.00 0.00 0.00 0.00 0.00 0.00 0.00 0.00 0.00 0.00 0.00 0.00 0.00 0.00 0.00 0.02 0.02 0.02 0.02 0.02 0.02 0.02 0.02 0.02 0.02 0.04 0.06 0.05 0.21 0.37 0.31
0.01 0.00 0.00 0.00 0.00 0.00 0.00 0.00 0.00 0.00 0.00 0.00 0.00 0.00 0.00 0.00 0.00 0.00 0.00 0.00 0.00 0.00 0.00 0.00 0.00 0.00 0.00 0.00 0.00 0.02 0.01 0.01 0.00 0.00 0.00 0.02 0.02 0.02 0.03 0.18 0.41 0.39 0.21 0.06
0.00 0.01 0.00 0.00 0.00 0.00 0.00 0.00 0.00 0.00 0.00 0.00 0.00 0.00 0.00 0.00 0.01 0.00 0.00 0.00 0.00 0.00 0.00 0.00 0.00 0.00 0.00 0.00 0.00 0.00 0.00 0.00 0.00 0.00 0.00 0.01 0.07 0.21 0.34 0.30 0.11 0.01 0.00 0.00
0.00 0.00 0.00 0.00 0.01 0.00 0.00 0.00 0.00 0.02 0.04 0.00 0.00 0.00 0.00 0.00 0.01 0.00 0.00 0.00 0.00 0.00 0.00 0.00 0.00 0.00 0.00 0.00 0.00 0.00 0.00 0.01 0.02 0.03 0.07 0.14 0.19 0.13 0.05 0.01 0.00 0.00 0.00 0.00
0.00 0.00 0.00 0.00 0.00 0.01 0.00 0.00 0.01 0.02 0.02 0.00 0.00 0.00 0.00 0.00 0.00 0.00 0.00 0.00 0.00 0.00 0.00 0.00 0.00 0.00 0.00 0.00 0.00 0.01 0.02 0.03 0.03 0.03 0.05 0.05 0.02 0.00 0.00 0.00 0.00 0.00 0.00 0.00
0.00 0.00 0.00 0.01 0.00 0.00 0.00 0.02 0.02 0.01 0.01 0.00 0.00 0.00 0.00 0.00 0.00 0.00 0.00 0.00 0.00 0.00 0.00 0.00 0.00 0.00 0.00 0.00 0.02 0.04 0.03 0.03 0.03 0.01 0.01 0.01 0.00 0.00 0.00 0.00 0.00 0.00 0.00 0.00
0.00 0.00 0.00 0.01 0.00 0.00 0.01 0.01 0.01 0.00 0.00 0.00 0.00 0.01 0.01 0.00 0.00 0.00 0.00 0.01 0.01 0.00 0.00 0.02 0.02 0.02 0.04 0.05 0.04 0.03 0.02 0.01 0.01 0.01 0.00 0.00 0.00 0.00 0.00 0.00 0.00 0.00 0.00 0.00
0.00 0.01 0.01 0.01 0.00 0.00 0.01 0.01 0.00 0.00 0.01 0.01 0.01 0.00 0.00 0.00 0.00 0.01 0.01 0.02 0.03 0.04 0.04 0.04 0.05 0.06 0.03 0.01 0.01 0.01 0.01 0.01 0.00 0.00 0.00 0.00 0.01 0.00 0.00 0.00 0.00 0.00 0.00 0.00
0.00 0.00 0.02 0.01 0.01 0.01 0.03 0.02 0.01 0.02 0.02 0.02 0.00 0.00 0.00 0.00 0.00 0.01 0.03 0.04 0.03 0.02 0.03 0.03 0.02 0.01 0.01 0.01 0.01 0.00 0.00 0.00 0.00 0.00 0.00 0.02 0.02 0.01 0.01 0.00 0.00 0.00 0.00 0.00

GFSCGP_prec_precacc_051.txt.gz
Total_Precipitation_Accumulation
0.01 0.00 0.00 0.00 0.00 0.00 0.00 0.00 0.00 0.00 0.00 0.00 0.00 0.00 0.00 0.00 0.00 0.00 0.00 0.00 0.01 0.00 0.01 0.05 0.08 0.11 0.12 0.19 0.54 0.68 0.82 0.64 0.36 0.11 0.06 0.04 0.04 0.06 0.03 0.04 0.01 0.02 0.02 0.00
0.00 0.00 0.00 0.00 0.00 0.00 0.00 0.00 0.00 0.00 0.00 0.00 0.00 0.00 0.00 0.00 0.00 0.00 0.00 0.00 0.00 0.00 0.00 0.01 0.02 0.08 0.22 0.43 0.48 0.40 0.31 0.17 0.16 0.10 0.07 0.05 0.03 0.01 0.00 0.01 0.02 0.02 0.03 0.00
0.01 0.00 0.00 0.00 0.00 0.00 0.00 0.00 0.00 0.00 0.00 0.00 0.00 0.00 0.00 0.00 0.00 0.00 0.00 0.02 0.00 0.01 0.03 0.05 0.09 0.12 0.12 0.10 0.06 0.08 0.13 0.08 0.12 0.06 0.01 0.00 0.00 0.00 0.00 0.01 0.03 0.03 0.01 0.00
0.01 0.00 0.00 0.00 0.00 0.00 0.00 0.00 0.00 0.00 0.00 0.00 0.00 0.00 0.02 0.01 0.00 0.00 0.00 0.01 0.02 0.03 0.03 0.02 0.01 0.01 0.00 0.05 0.08 0.12 0.10 0.09 0.03 0.01 0.00 0.00 0.00 0.00 0.02 0.06 0.03 0.03 0.03 0.02
0.01 0.00 0.00 0.00 0.00 0.00 0.00 0.00 0.00 0.00 0.00 0.06 0.02 0.01 0.02 0.02 0.00 0.00 0.00 0.00 0.01 0.00 0.00 0.02 0.01 0.03 0.05 0.04 0.08 0.09 0.10 0.13 0.04 0.02 0.00 0.01 0.01 0.01 0.03 0.04 0.05 0.03 0.01 0.01
0.01 0.00 0.01 0.03 0.00 0.00 0.00 0.00 0.00 0.00 0.00 0.01 0.01 0.03 0.02 0.01 0.01 0.03 0.02 0.00 0.00 0.01 0.08 0.06 0.04 0.06 0.06 0.07 0.20 0.11 0.11 0.08 0.07 0.04 0.01 0.04 0.07 0.07 0.04 0.05 0.04 0.03 0.02 0.02
0.00 0.00 0.00 0.00 0.00 0.00 0.00 0.00 0.01 0.09 0.02 0.01 0.03 0.03 0.01 0.01 0.02 0.11 0.07 0.00 0.00 0.01 0.04 0.02 0.02 0.05 0.05 0.09 0.20 0.10 0.04 0.06 0.04 0.03 0.06 0.10 0.15 0.10 0.08 0.06 0.05 0.05 0.04 0.04
0.00 0.00 0.00 0.00 0.00 0.01 0.00 0.00 0.01 0.14 0.08 0.03 0.03 0.01 0.00 0.00 0.00 0.00 0.00 0.00 0.00 0.00 0.00 0.01 0.02 0.05 0.07 0.17 0.18 0.08 0.03 0.06 0.06 0.12 0.16 0.14 0.15 0.12 0.13 0.11 0.08 0.06 0.05 0.04
0.03 0.02 0.01 0.00 0.00 0.00 0.00 0.00 0.00 0.01 0.02 0.00 0.01 0.00 0.00 0.00 0.00 0.00 0.00 0.00 0.00 0.00 0.00 0.00 0.01 0.00 0.02 0.23 0.17 0.04 0.02 0.01 0.03 0.15 0.22 0.13 0.21 0.17 0.28 0.17 0.10 0.09 0.12 0.08
0.06 0.11 0.02 0.00 0.00 0.00 0.00 0.00 0.00 0.00 0.02 0.01 0.00 0.00 0.01 0.01 0.00 0.00 0.00 0.00 0.00 0.00 0.00 0.00 0.00 0.00 0.01 0.06 0.05 0.01 0.00 0.01 0.00 0.01 0.07 0.09 0.12 0.17 0.19 0.19 0.19 0.22 0.16 0.09
0.00 0.05 0.07 0.00 0.00 0.00 0.00 0.00 0.00 0.00 0.00 0.01 0.00 0.00 0.00 0.00 0.00 0.00 0.00 0.00 0.00 0.00 0.00 0.00 0.00 0.00 0.00 0.00 0.00 0.00 0.01 0.01 0.01 0.01 0.03 0.07 0.14 0.18 0.24 0.24 0.23 0.16 0.09 0.06
0.00 0.00 0.01 0.00 0.00 0.00 0.00 0.00 0.01 0.00 0.00 0.00 0.00 0.00 0.00 0.00 0.00 0.00 0.00 0.00 0.00 0.00 0.00 0.00 0.00 0.00 0.00 0.00 0.00 0.01 0.01 0.03 0.05 0.09 0.12 0.20 0.21 0.21 0.18 0.17 0.14 0.10 0.09 0.07
0.00 0.00 0.00 0.00 0.00 0.01 0.00 0.00 0.00 0.00 0.00 0.00 0.01 0.00 0.00 0.00 0.00 0.00 0.00 0.00 0.00 0.00 0.00 0.00 0.00 0.00 0.00 0.00 0.00 0.04 0.05 0.06 0.15 0.16 0.14 0.15 0.15 0.12 0.15 0.15 0.13 0.11 0.09 0.08
0.00 0.00 0.00 0.00 0.00 0.00 0.00 0.00 0.00 0.00 0.00 0.00 0.00 0.00 0.00 0.01 0.00 0.00 0.00 0.00 0.00 0.00 0.00 0.00 0.01 0.00 0.00 0.01 0.06 0.08 0.09 0.13 0.20 0.17 0.13 0.12 0.12 0.15 0.11 0.09 0.07 0.05 0.06 0.04
0.00 0.00 0.00 0.00 0.00 0.00 0.00 0.00 0.00 0.00 0.00 0.00 0.00 0.00 0.00 0.00 0.00 0.00 0.00 0.00 0.00 0.00 0.00 0.01 0.00 0.01 0.02 0.04 0.09 0.09 0.12 0.12 0.12 0.15 0.15 0.11 0.07 0.05 0.05 0.06 0.04 0.04 0.03 0.02
0.00 0.00 0.00 0.00 0.00 0.00 0.00 0.00 0.00 0.00 0.00 0.00 0.00 0.00 0.00 0.00 0.00 0.00 0.00 0.00 0.00 0.00 0.00 0.00 0.00 0.00 0.02 0.03 0.04 0.05 0.07 0.06 0.05 0.05 0.05 0.04 0.03 0.04 0.05 0.03 0.03 0.02 0.04 0.04
0.00 0.00 0.00 0.00 0.00 0.00 0.00 0.00 0.00 0.00 0.00 0.00 0.00 0.00 0.00 0.00 0.00 0.00 0.00 0.00 0.00 0.00 0.00 0.00 0.00 0.00 0.00 0.01 0.05 0.02 0.02 0.02 0.02 0.04 0.05 0.04 0.04 0.04 0.02 0.03 0.02 0.03 0.08 0.25
0.00 0.00 0.00 0.00 0.00 0.00 0.00 0.00 0.00 0.00 0.00 0.00 0.00 0.00 0.00 0.00 0.00 0.00 0.00 0.00 0.00 0.00 0.00 0.00 0.00 0.00 0.00 0.00 0.02 0.02 0.02 0.02 0.02 0.02 0.02 0.02 0.02 0.02 0.04 0.06 0.05 0.21 0.37 0.33
0.01 0.01 0.00 0.00 0.00 0.00 0.00 0.00 0.00 0.00 0.00 0.00 0.00 0.00 0.00 0.00 0.00 0.00 0.00 0.00 0.00 0.00 0.00 0.00 0.00 0.00 0.00 0.00 0.00 0.02 0.01 0.01 0.00 0.00 0.00 0.02 0.02 0.02 0.03 0.18 0.41 0.40 0.22 0.06
0.00 0.01 0.03 0.01 0.00 0.00 0.00 0.00 0.00 0.00 0.00 0.00 0.00 0.00 0.00 0.00 0.01 0.00 0.00 0.00 0.00 0.00 0.00 0.00 0.00 0.00 0.00 0.00 0.00 0.00 0.00 0.00 0.00 0.00 0.00 0.01 0.07 0.21 0.34 0.30 0.11 0.01 0.00 0.00
0.00 0.00 0.01 0.02 0.01 0.00 0.00 0.00 0.00 0.02 0.04 0.00 0.00 0.00 0.00 0.00 0.01 0.00 0.00 0.00 0.00 0.00 0.00 0.00 0.00 0.00 0.00 0.00 0.00 0.00 0.00 0.01 0.02 0.03 0.07 0.14 0.19 0.13 0.05 0.01 0.00 0.00 0.00 0.00
0.01 0.01 0.01 0.02 0.02 0.01 0.00 0.00 0.01 0.02 0.02 0.00 0.00 0.00 0.00 0.00 0.00 0.00 0.00 0.00 0.00 0.00 0.00 0.00 0.00 0.00 0.00 0.00 0.00 0.01 0.02 0.03 0.03 0.03 0.05 0.05 0.02 0.00 0.00 0.00 0.00 0.00 0.00 0.00
0.00 0.02 0.03 0.02 0.00 0.00 0.00 0.02 0.02 0.01 0.01 0.00 0.00 0.00 0.00 0.00 0.00 0.00 0.00 0.00 0.00 0.00 0.00 0.00 0.00 0.00 0.00 0.00 0.02 0.04 0.03 0.03 0.03 0.01 0.01 0.01 0.00 0.00 0.00 0.00 0.00 0.00 0.00 0.00
0.00 0.00 0.00 0.01 0.00 0.00 0.01 0.01 0.01 0.00 0.00 0.00 0.00 0.01 0.01 0.00 0.00 0.00 0.00 0.01 0.01 0.00 0.00 0.02 0.02 0.02 0.04 0.05 0.04 0.03 0.02 0.01 0.01 0.01 0.00 0.00 0.00 0.00 0.00 0.00 0.00 0.00 0.00 0.00
0.00 0.01 0.01 0.01 0.00 0.00 0.01 0.01 0.00 0.00 0.01 0.01 0.01 0.00 0.00 0.00 0.00 0.01 0.01 0.02 0.03 0.04 0.04 0.04 0.05 0.06 0.03 0.01 0.01 0.01 0.01 0.01 0.00 0.00 0.00 0.00 0.01 0.00 0.00 0.00 0.00 0.00 0.00 0.00
0.00 0.00 0.02 0.01 0.02 0.01 0.03 0.02 0.02 0.02 0.02 0.02 0.00 0.00 0.00 0.00 0.00 0.01 0.03 0.04 0.03 0.02 0.03 0.03 0.02 0.01 0.01 0.01 0.01 0.00 0.00 0.00 0.00 0.00 0.00 0.02 0.02 0.01 0.01 0.00 0.00 0.00 0.00 0.00

GFSCGP_prec_precacc_054.txt.gz
Total_Precipitation_Accumulation
0.01 0.00 0.00 0.00 0.00 0.00 0.00 0.00 0.00 0.00 0.00 0.00 0.00 0.00 0.01 0.02 0.00 0.00 0.00 0.00 0.01 0.00 0.01 0.05 0.08 0.11 0.12 0.19 0.54 0.68 0.82 0.64 0.36 0.12 0.06 0.04 0.04 0.06 0.03 0.04 0.01 0.04 0.07 0.04
0.00 0.00 0.00 0.00 0.00 0.00 0.00 0.00 0.00 0.00 0.00 0.00 0.00 0.00 0.00 0.01 0.04 0.00 0.00 0.00 0.00 0.00 0.00 0.01 0.02 0.08 0.22 0.43 0.48 0.40 0.31 0.17 0.16 0.10 0.07 0.05 0.03 0.01 0.00 0.01 0.02 0.05 0.10 0.03
0.01 0.00 0.00 0.00 0.00 0.00 0.00 0.00 0.00 0.00 0.00 0.00 0.00 0.00 0.00 0.00 0.01 0.00 0.00 0.02 0.00 0.01 0.03 0.05 0.09 0.12 0.12 0.10 0.06 0.08 0.13 0.08 0.12 0.06 0.01 0.00 0.00 0.00 0.00 0.01 0.03 0.04 0.04 0.03
0.01 0.00 0.00 0.00 0.00 0.00 0.00 0.00 0.00 0.00 0.00 0.00 0.00 0.00 0.02 0.01 0.00 0.00 0.00 0.01 0.02 0.03 0.03 0.02 0.01 0.01 0.00 0.05 0.08 0.12 0.10 0.09 0.03 0.01 0.00 0.00 0.00 0.00 0.02 0.06 0.03 0.03 0.03 0.04
0.01 0.00 0.00 0.00 0.00 0.00 0.00 0.00 0.00 0.00 0.00 0.06 0.02 0.01 0.02 0.02 0.00 0.00 0.00 0.00 0.01 0.00 0.00 0.02 0.01 0.03 0.05 0.04 0.08 0.09 0.10 0.13 0.04 0.02 0.00 0.01 0.01 0.01 0.03 0.04 0.05 0.03 0.01 0.01
0.01 0.00 0.01 0.03 0.00 0.00 0.00 0.00 0.00 0.00 0.00 0.01 0.01 0.03 0.02 0.01 0.02 0.03 0.02 0.00 0.00 0.01 0.08 0.06 0.04 0.06 0.06 0.07 0.20 0.11 0.11 0.08 0.07 0.04 0.01 0.05 0.09 0.07 0.04 0.05 0.04 0.04 0.02 0.02
0.00 0.00 0.00 0.00 0.00 0.00 0.00 0.00 0.01 0.10 0.02 0.01 0.03 0.03 0.01 0.01 0.02 0.11 0.07 0.00 0.00 0.01 0.04 0.02 0.02 0.05 0.05 0.09 0.20 0.10 0.04 0.06 0.04 0.03 0.06 0.10 0.19 0.14 0.08 0.06 0.06 0.09 0.05 0.05
0.00 0.00 0.00 0.00 0.00 0.01 0.00 0.00 0.01 0.17 0.12 0.04 0.05 0.01 0.00 0.00 0.00 0.00 0.00 0.00 0.00 0.00 0.00 0.01 0.02 0.05 0.07 0.17 0.18 0.08 0.03 0.06 0.06 0.13 0.25 0.22 0.21 0.28 0.36 0.17 0.09 0.12 0.06 0.06
0.03 0.02 0.01 0.00 0.00 0.00 0.00 0.00 0.00 0.01 0.02 0.03 0.04 0.00 0.00 0.00 0.00 0.00 0.00 0.00 0.00 0.00 0.00 0.00 0.01 0.00 0.02 0.23 0.17 0.04 0.02 0.01 0.03 0.15 0.26 0.15 0.36 0.63 0.49 0.32 0.24 0.19 0.22 0.21
0.06 0.11 0.02 0.00 0.00 0.00 0.00 0.00 0.00 0.00 0.05 0.05 0.00 0.00 0.01 0.01 0.00 0.00 0.00 0.00 0.00 0.00 0.00 0.00 0.00 0.00 0.01 0.06 0.05 0.01 0.00 0.01 0.01 0.03 0.09 0.11 0.18 0.30 0.33 0.28 0.20 0.29 0.30 0.26
0.00 0.05 0.07 0.00 0.00 0.00 0.00 0.00 0.00 0.00 0.00 0.04 0.03 0.00 0.00 0.00 0.00 0.00 0.00 0.00 0.00 0.00 0.00 0.00 0.00 0.00 0.00 0.00 0.00 0.00 0.01 0.01 0.04 0.18 0.20 0.15 0.23 0.24 0.28 0.25 0.27 0.21 0.17 0.16
0.00 0.00 0.01 0.00 0.00 0.00 0.00 0.00 0.01 0.01 0.00 0.01 0.01 0.00 0.00 0.00 0.00 0.00 0.00 0.00 0.00 0.00 0.00 0.00 0.00 0.00 0.00 0.00 0.00 0.01 0.01 0.05 0.13 0.36 0.39 0.32 0.28 0.26 0.23 0.24 0.19 0.15 0.10 0.08
0.00 0.00 0.00 0.00 0.00 0.01 0.00 0.00 0.00 0.00 0.00 0.00 0.03 0.00 0.00 0.00 0.00 0.00 0.00 0.00 0.00 0.00 0.00 0.00 0.00 0.00 0.00 0.00 0.00 0.04 0.06 0.06 0.16 0.27 0.46 0.30 0.26 0.23 0.19 0.18 0.14 0.12 0.10 0.10
0.00 0.00 0.00 0.00 0.00 0.00 0.00 0.00 0.00 0.00 0.00 0.00 0.00 0.00 0.00 0.01 0.00 0.00 0.00 0.00 0.00 0.00 0.00 0.00 0.01 0.00 0.00 0.01 0.06 0.08 0.09 0.13 0.22 0.24 0.16 0.16 0.15 0.17 0.13 0.10 0.08 0.07 0.07 0.05
0.00 0.00 0.00 0.00 0.00 0.00 0.00 0.00 0.00 0.00 0.00 0.00 0.00 0.00 0.00 0.00 0.00 0.00 0.00 0.00 0.00 0.00 0.00 0.01 0.00 0.01 0.02 0.04 0.09 0.09 0.13 0.14 0.17 0.22 0.18 0.15 0.08 0.05 0.05 0.07 0.05 0.04 0.03 0.02
0.00 0.00 0.00 0.00 0.00 0.00 0.00 0.00 0.00 0.00 0.00 0.00 0.00 0.00 0.00 0.00 0.00 0.00 0.00 0.00 0.00 0.00 0.00 0.00 0.00 0.00 0.02 0.03 0.04 0.08 0.08 0.09 0.08 0.06 0.08 0.06 0.04 0.05 0.06 0.03 0.03 0.02 0.04 0.04
0.00 0.00 0.00 0.00 0.00 0.00 0.00 0.00 0.00 0.00 0.00 0.00 0.00 0.00 0.00 0.00 0.00 0.00 0.00 0.00 0.00 0.00 0.00 0.00 0.00 0.01 0.00 0.03 0.10 0.04 0.03 0.02 0.03 0.05 0.08 0.04 0.04 0.04 0.02 0.03 0.02 0.03 0.08 0.25
0.00 0.00 0.00 0.00 0.00 0.00 0.00 0.00 0.00 0.00 0.00 0.00 0.00 0.00 0.00 0.00 0.00 0.00 0.00 0.00 0.00 0.00 0.00 0.00 0.00 0.01 0.05 0.05 0.03 0.04 0.02 0.02 0.02 0.02 0.02 0.02 0.02 0.02 0.04 0.06 0.05 0.21 0.37 0.33
0.01 0.02 0.03 0.01 0.00 0.00 0.00 0.00 0.00 0.00 0.00 0.00 0.00 0.00 0.00 0.00 0.00 0.00 0.00 0.00 0.00 0.00 0.00 0.00 0.00 0.00 0.00 0.00 0.00 0.02 0.02 0.01 0.00 0.00 0.00 0.02 0.02 0.02 0.03 0.18 0.41 0.40 0.22 0.06
0.00 0.02 0.07 0.03 0.01 0.00 0.00 0.00 0.00 0.00 0.00 0.00 0.00 0.00 0.00 0.00 0.01 0.00 0.00 0.00 0.00 0.00 0.00 0.00 0.00 0.00 0.00 0.00 0.00 0.00 0.00 0.00 0.00 0.00 0.00 0.01 0.07 0.21 0.34 0.30 0.11 0.01 0.00 0.00
0.03 0.03 0.03 0.05 0.04 0.00 0.00 0.00 0.00 0.02 0.04 0.00 0.00 0.00 0.00 0.00 0.01 0.00 0.00 0.00 0.00 0.00 0.00 0.00 0.00 0.00 0.00 0.00 0.00 0.00 0.00 0.01 0.02 0.03 0.07 0.14 0.19 0.13 0.05 0.01 0.00 0.00 0.00 0.00
0.05 0.07 0.04 0.04 0.05 0.02 0.00 0.00 0.01 0.02 0.02 0.00 0.00 0.00 0.00 0.00 0.00 0.00 0.00 0.00 0.00 0.00 0.00 0.00 0.00 0.00 0.00 0.00 0.00 0.01 0.02 0.03 0.03 0.03 0.05 0.05 0.02 0.00 0.00 0.00 0.00 0.00 0.00 0.00
0.01 0.04 0.06 0.03 0.01 0.01 0.00 0.02 0.02 0.01 0.01 0.00 0.00 0.00 0.00 0.00 0.00 0.00 0.00 0.00 0.00 0.00 0.00 0.00 0.00 0.00 0.00 0.00 0.02 0.04 0.03 0.03 0.03 0.01 0.01 0.01 0.00 0.00 0.00 0.00 0.00 0.00 0.00 0.00
0.00 0.00 0.01 0.03 0.01 0.01 0.01 0.03 0.02 0.00 0.00 0.00 0.00 0.01 0.01 0.00 0.00 0.00 0.00 0.01 0.01 0.00 0.00 0.02 0.02 0.02 0.04 0.05 0.04 0.03 0.02 0.01 0.01 0.01 0.00 0.00 0.00 0.00 0.00 0.00 0.00 0.00 0.00 0.00
0.00 0.01 0.01 0.01 0.00 0.00 0.01 0.03 0.01 0.00 0.01 0.01 0.01 0.00 0.00 0.00 0.00 0.01 0.01 0.02 0.03 0.04 0.04 0.04 0.05 0.06 0.03 0.01 0.01 0.01 0.01 0.01 0.00 0.00 0.00 0.00 0.01 0.00 0.00 0.00 0.00 0.00 0.00 0.00
0.00 0.00 0.02 0.01 0.02 0.01 0.03 0.02 0.02 0.02 0.02 0.02 0.00 0.00 0.00 0.00 0.00 0.01 0.03 0.04 0.03 0.02 0.03 0.03 0.02 0.01 0.01 0.01 0.01 0.00 0.00 0.00 0.00 0.00 0.00 0.02 0.02 0.01 0.01 0.00 0.00 0.00 0.00 0.00

GFSCGP_prec_precacc_060.txt.gz
Total_Precipitation_Accumulation
0.01 0.00 0.00 0.00 0.00 0.00 0.00 0.00 0.00 0.00 0.00 0.00 0.00 0.01 0.02 0.03 0.04 0.04 0.02 0.01 0.01 0.00 0.01 0.05 0.08 0.11 0.12 0.19 0.54 0.68 0.82 0.64 0.36 0.12 0.06 0.04 0.04 0.06 0.03 0.04 0.01 0.04 0.07 0.04
0.00 0.00 0.00 0.00 0.00 0.00 0.00 0.00 0.00 0.00 0.00 0.00 0.00 0.00 0.00 0.01 0.17 0.03 0.01 0.01 0.00 0.00 0.00 0.01 0.02 0.08 0.22 0.43 0.48 0.40 0.31 0.17 0.16 0.10 0.07 0.05 0.03 0.01 0.00 0.01 0.03 0.06 0.10 0.04
0.01 0.00 0.00 0.00 0.00 0.00 0.00 0.00 0.00 0.00 0.00 0.00 0.00 0.00 0.00 0.00 0.02 0.05 0.03 0.03 0.00 0.01 0.03 0.05 0.09 0.12 0.12 0.10 0.06 0.08 0.13 0.08 0.12 0.06 0.01 0.00 0.00 0.00 0.00 0.01 0.03 0.04 0.04 0.03
0.01 0.00 0.00 0.00 0.00 0.00 0.00 0.00 0.00 0.00 0.00 0.00 0.00 0.00 0.02 0.01 0.00 0.05 0.01 0.01 0.02 0.03 0.03 0.02 0.01 0.01 0.00 0.05 0.08 0.12 0.10 0.09 0.03 0.01 0.01 0.00 0.00 0.00 0.02 0.06 0.03 0.04 0.05 0.05
0.01 0.00 0.00 0.00 0.00 0.00 0.00 0.00 0.00 0.00 0.00 0.06 0.02 0.01 0.02 0.02 0.00 0.00 0.01 0.01 0.01 0.00 0.00 0.02 0.01 0.03 0.05 0.04 0.08 0.09 0.10 0.13 0.04 0.02 0.00 0.02 0.01 0.01 0.03 0.04 0.05 0.03 0.02 0.03
0.01 0.00 0.01 0.03 0.00 0.00 0.00 0.00 0.00 0.00 0.00 0.01 0.01 0.03 0.02 0.01 0.02 0.03 0.02 0.01 0.00 0.01 0.08 0.06 0.04 0.06 0.06 0.07 0.20 0.11 0.11 0.08 0.07 0.04 0.01 0.06 0.13 0.08 0.06 0.05 0.04 0.05 0.04 0.02
0.00 0.00 0.00 0.00 0.00 0.00 0.00 0.00 0.01 0.10 0.02 0.01 0.03 0.03 0.01 0.01 0.02 0.11 0.07 0.00 0.00 0.01 0.04 0.02 0.02 0.05 0.05 0.09 0.20 0.10 0.04 0.06 0.04 0.03 0.06 0.10 0.21 0.17 0.17 0.09 0.06 0.13 0.09 0.05
0.00 0.00 0.00 0.00 0.00 0.01 0.00 0.00 0.01 0.17 0.12 0.04 0.05 0.01 0.00 0.00 0.00 0.00 0.00 0.00 0.00 0.00 0.00 0.01 0.02 0.05 0.07 0.17 0.18 0.08 0.03 0.06 0.06 0.13 0.25 0.22 0.21 0.28 0.40 0.30 0.16 0.24 0.15 0.10
0.03 0.02 0.01 0.00 0.00 0.00 0.00 0.00 0.00 0.01 0.02 0.04 0.04 0.01 0.00 0.00 0.00 0.00 0.00 0.00 0.00 0.00 0.00 0.00 0.01 0.00 0.02 0.23 0.17 0.04 0.02 0.02 0.03 0.15 0.26 0.15 0.36 0.63 0.50 0.40 0.37 0.34 0.35 0.34
0.06 0.11 0.02 0.00 0.00 0.00 0.00 0.00 0.00 0.00 0.05 0.05 0.00 0.00 0.01 0.01 0.00 0.00 0.00 0.00 0.00 0.00 0.00 0.00 0.00 0.00 0.01 0.06 0.05 0.01 0.02 0.06 0.08 0.05 0.09 0.12 0.18 0.30 0.40 0.33 0.37 0.57 0.54 0.35
0.00 0.05 0.07 0.00 0.00 0.00 0.00 0.00 0.00 0.00 0.00 0.04 0.03 0.00 0.00 0.00 0.00 0.00 0.00 0.00 0.00 0.00 0.00 0.00 0.00 0.00 0.00 0.00 0.00 0.00 0.01 0.09 0.16 0.34 0.39 0.26 0.37 0.35 0.58 0.57 0.72 0.57 0.46 0.44
0.00 0.00 0.01 0.00 0.00 0.00 0.00 0.00 0.01 0.01 0.00 0.01 0.01 0.00 0.00 0.00 0.00 0.00 0.00 0.00 0.00 0.00 0.00 0.00 0.00 0.00 0.00 0.00 0.00 0.01 0.01 0.13 0.34 0.93 1.08 0.71 0.85 0.70 0.66 0.75 0.72 0.72 0.51 0.21
0.00 0.00 0.00 0.00 0.00 0.01 0.00 0.00 0.00 0.00 0.00 0.01 0.04 0.00 0.00 0.00 0.00 0.00 0.00 0.00 0.00 0.00 0.00 0.00 0.00 0.00 0.00 0.01 0.01 0.04 0.14 0.30 0.76 0.98 0.95 0.72 0.74 0.67 0.49 0.54 0.43 0.24 0.20 0.17
0.00 0.00 0.00 0.00 0.00 0.00 0.00 0.00 0.00 0.00 0.00 0.00 0.00 0.00 0.01 0.01 0.00 0.00 0.00 0.00 0.00 0.00 0.00 0.00 0.01 0.00 0.00 0.01 0.07 0.14 0.29 0.42 0.75 0.48 0.49 0.37 0.34 0.52 0.26 0.31 0.21 0.14 0.12 0.11
0.02 0.01 0.00 0.00 0.00 0.00 0.00 0.00 0.00 0.00 0.00 0.00 0.00 0.00 0.00 0.00 0.00 0.00 0.00 0.00 0.00 0.00 0.00 0.01 0.00 0.01 0.02 0.04 0.09 0.11 0.16 0.23 0.37 0.39 0.39 0.29 0.17 0.20 0.15 0.21 0.18 0.11 0.09 0.05
0.02 0.01 0.00 0.00 0.00 0.00 0.00 0.00 0.00 0.00 0.00 0.00 0.00 0.00 0.00 0.00 0.00 0.00 0.00 0.00 0.00 0.00 0.00 0.00 0.00 0.00 0.02 0.03 0.04 0.08 0.12 0.20 0.15 0.13 0.16 0.12 0.09 0.14 0.15 0.13 0.10 0.07 0.08 0.07
0.10 0.05 0.01 0.00 0.00 0.00 0.00 0.00 0.00 0.00 0.00 0.00 0.00 0.00 0.00 0.00 0.00 0.00 0.00 0.00 0.00 0.00 0.00 0.00 0.00 0.01 0.01 0.05 0.10 0.05 0.05 0.06 0.07 0.11 0.13 0.07 0.07 0.09 0.08 0.08 0.06 0.05 0.09 0.27
0.19 0.10 0.06 0.02 0.01 0.03 0.02 0.00 0.00 0.00 0.00 0.00 0.00 0.00 0.00 0.00 0.00 0.00 0.00 0.00 0.00 0.00 0.00 0.00 0.00 0.02 0.08 0.11 0.05 0.04 0.03 0.04 0.04 0.04 0.04 0.06 0.04 0.05 0.08 0.10 0.07 0.23 0.38 0.33
0.17 0.22 0.24 0.08 0.02 0.01 0.00 0.00 0.00 0.00 0.00 0.00 0.00 0.00 0.00 0.00 0.00 0.00 0.00 0.00 0.00 0.00 0.00 0.00 0.00 0.00 0.01 0.01 0.01 0.03 0.03 0.02 0.01 0.01 0.01 0.03 0.03 0.05 0.06 0.19 0.42 0.40 0.22 0.06
0.31 0.30 0.29 0.20 0.08 0.02 0.00 0.00 0.00 0.00 0.00 0.00 0.00 0.00 0.00 0.00 0.01 0.00 0.00 0.00 0.00 0.00 0.00 0.00 0.00 0.00 0.00 0.01 0.01 0.01 0.01 0.00 0.01 0.01 0.01 0.02 0.08 0.22 0.34 0.31 0.11 0.01 0.00 0.00
0.22 0.35 0.31 0.25 0.22 0.03 0.00 0.00 0.00 0.02 0.04 0.00 0.00 0.00 0.00 0.00 0.01 0.00 0.00 0.00 0.00 0.00 0.00 0.00 0.00 0.00 0.00 0.00 0.00 0.00 0.01 0.01 0.02 0.04 0.08 0.14 0.19 0.13 0.05 0.01 0.00 0.00 0.00 0.00
0.06 0.15 0.20 0.28 0.29 0.09 0.00 0.01 0.01 0.02 0.02 0.00 0.00 0.00 0.00 0.00 0.00 0.00 0.00 0.00 0.00 0.00 0.00 0.00 0.00 0.00 0.00 0.00 0.00 0.01 0.02 0.03 0.03 0.04 0.05 0.05 0.02 0.00 0.00 0.00 0.00 0.00 0.00 0.00
0.03 0.04 0.07 0.07 0.06 0.03 0.02 0.04 0.03 0.01 0.01 0.00 0.00 0.00 0.01 0.00 0.00 0.00 0.00 0.00 0.00 0.00 0.00 0.00 0.00 0.00 0.00 0.00 0.02 0.04 0.03 0.03 0.03 0.01 0.01 0.01 0.00 0.00 0.00 0.00 0.00 0.00 0.00 0.00
0.00 0.00 0.01 0.04 0.01 0.02 0.03 0.06 0.03 0.01 0.00 0.00 0.01 0.01 0.03 0.03 0.01 0.00 0.00 0.01 0.01 0.00 0.00 0.02 0.02 0.02 0.04 0.05 0.04 0.03 0.02 0.01 0.01 0.01 0.00 0.00 0.00 0.00 0.00 0.00 0.00 0.00 0.00 0.00
0.00 0.02 0.02 0.03 0.00 0.00 0.01 0.05 0.07 0.06 0.02 0.01 0.01 0.01 0.00 0.00 0.00 0.01 0.01 0.02 0.03 0.04 0.04 0.04 0.05 0.06 0.03 0.01 0.01 0.01 0.01 0.01 0.00 0.00 0.00 0.00 0.01 0.00 0.00 0.00 0.00 0.00 0.00 0.00
0.00 0.01 0.04 0.03 0.03 0.02 0.04 0.02 0.02 0.03 0.04 0.03 0.00 0.00 0.00 0.00 0.00 0.01 0.03 0.04 0.03 0.02 0.03 0.03 0.02 0.01 0.01 0.01 0.01 0.00 0.00 0.00 0.00 0.00 0.00 0.02 0.02 0.01 0.01 0.00 0.00 0.00 0.00 0.00

GFSCGP_prec_precacc_063.txt.gz
Total_Precipitation_Accumulation
0.01 0.00 0.00 0.00 0.00 0.00 0.00 0.00 0.00 0.00 0.00 0.00 0.00 0.01 0.02 0.03 0.04 0.04 0.02 0.01 0.01 0.00 0.01 0.05 0.08 0.11 0.12 0.19 0.55 0.68 0.82 0.64 0.36 0.12 0.06 0.05 0.06 0.06 0.03 0.04 0.01 0.05 0.07 0.05
0.00 0.00 0.00 0.00 0.00 0.00 0.00 0.00 0.00 0.00 0.00 0.00 0.00 0.00 0.00 0.01 0.17 0.03 0.01 0.01 0.00 0.00 0.00 0.01 0.02 0.08 0.22 0.43 0.48 0.40 0.31 0.17 0.16 0.10 0.07 0.05 0.03 0.01 0.00 0.01 0.03 0.06 0.10 0.04
0.01 0.00 0.00 0.00 0.00 0.00 0.00 0.00 0.00 0.00 0.00 0.00 0.00 0.00 0.00 0.00 0.02 0.05 0.03 0.03 0.00 0.01 0.03 0.05 0.09 0.12 0.12 0.10 0.06 0.08 0.13 0.08 0.12 0.06 0.01 0.00 0.00 0.00 0.00 0.01 0.03 0.04 0.04 0.03
0.01 0.00 0.00 0.00 0.00 0.00 0.00 0.00 0.00 0.00 0.00 0.00 0.00 0.00 0.02 0.01 0.00 0.05 0.01 0.01 0.02 0.03 0.03 0.02 0.01 0.01 0.00 0.05 0.08 0.12 0.10 0.09 0.03 0.01 0.01 0.00 0.00 0.00 0.02 0.06 0.03 0.04 0.05 0.05
0.01 0.00 0.00 0.00 0.00 0.00 0.00 0.00 0.00 0.00 0.00 0.06 0.02 0.01 0.02 0.02 0.00 0.00 0.01 0.01 0.01 0.00 0.00 0.02 0.01 0.03 0.05 0.04 0.08 0.09 0.10 0.13 0.04 0.02 0.00 0.02 0.01 0.01 0.03 0.04 0.05 0.03 0.02 0.03
0.01 0.00 0.01 0.03 0.00 0.00 0.00 0.00 0.00 0.00 0.00 0.01 0.01 0.03 0.02 0.01 0.02 0.03 0.02 0.01 0.00 0.01 0.08 0.06 0.04 0.06 0.06 0.07 0.20 0.11 0.11 0.08 0.07 0.04 0.01 0.06 0.13 0.08 0.06 0.05 0.04 0.05 0.04 0.02
0.00 0.00 0.00 0.00 0.00 0.00 0.00 0.00 0.01 0.10 0.02 0.01 0.03 0.03 0.01 0.01 0.02 0.11 0.07 0.00 0.00 0.01 0.04 0.02 0.02 0.05 0.05 0.09 0.20 0.10 0.04 0.06 0.04 0.03 0.06 0.10 0.21 0.17 0.17 0.09 0.06 0.13 0.09 0.05
0.00 0.00 0.00 0.00 0.00 0.01 0.00 0.00 0.01 0.17 0.12 0.04 0.05 0.01 0.00 0.00 0.00 0.00 0.00 0.00 0.00 0.00 0.00 0.01 0.02 0.05 0.07 0.17 0.18 0.08 0.03 0.06 0.06 0.13 0.25 0.22 0.21 0.28 0.40 0.30 0.16 0.24 0.15 0.10
0.03 0.02 0.01 0.00 0.00 0.00 0.00 0.00 0.00 0.01 0.02 0.04 0.04 0.01 0.00 0.00 0.00 0.00 0.00 0.00 0.00 0.00 0.00 0.00 0.01 0.00 0.02 0.23 0.17 0.05 0.03 0.02 0.03 0.15 0.26 0.15 0.36 0.63 0.51 0.40 0.37 0.37 0.39 0.36
0.06 0.11 0.02 0.00 0.00 0.00 0.00 0.00 0.00 0.00 0.05 0.05 0.00 0.00 0.01 0.01 0.00 0.00 0.00 0.00 0.00 0.00 0.00 0.00 0.00 0.00 0.01 0.06 0.05 0.02 0.06 0.14 0.14 0.05 0.09 0.12 0.18 0.30 0.40 0.33 0.37 0.59 0.63 0.47
0.00 0.05 0.07 0.00 0.00 0.00 0.00 0.00 0.00 0.00 0.00 0.04 0.03 0.00 0.00 0.00 0.00 0.00 0.00 0.00 0.00 0.00 0.00 0.00 0.00 0.00 0.00 0.00 0.00 0.00 0.01 0.15 0.29 0.46 0.42 0.27 0.37 0.35 0.58 0.60 0.75 0.59 0.55 0.63
0.00 0.00 0.01 0.00 0.00 0.00 0.00 0.00 0.01 0.01 0.00 0.01 0.01 0.00 0.00 0.00 0.00 0.00 0.00 0.00 0.00 0.00 0.00 0.00 0.00 0.00 0.00 0.00 0.00 0.01 0.01 0.13 0.41 1.16 1.24 0.78 0.89 0.78 0.73 0.80 0.77 0.81 0.80 0.74
0.00 0.00 0.00 0.00 0.00 0.01 0.00 0.00 0.00 0.00 0.00 0.01 0.04 0.00 0.00 0.00 0.00 0.00 0.00 0.00 0.00 0.00 0.00 0.00 0.00 0.00 0.00 0.01 0.01 0.04 0.14 0.30 0.89 1.16 1.06 0.83 0.99 1.09 0.72 0.63 0.48 0.32 0.34 0.36
0.01 0.00 0.00 0.00 0.00 0.00 0.00 0.00 0.00 0.00 0.00 0.00 0.00 0.00 0.01 0.01 0.00 0.00 0.00 0.00 0.00 0.00 0.00 0.00 0.01 0.00 0.00 0.01 0.07 0.14 0.29 0.42 0.78 0.56 0.58 0.45 0.43 0.59 0.28 0.32 0.27 0.21 0.16 0.15
0.04 0.02 0.00 0.00 0.00 0.00 0.00 0.00 0.00 0.00 0.00 0.00 0.00 0.00 0.00 0.00 0.00 0.00 0.00 0.00 0.00 0.00 0.00 0.01 0.00 0.01 0.02 0.04 0.09 0.11 0.16 0.23 0.38 0.41 0.42 0.30 0.20 0.22 0.15 0.21 0.21 0.15 0.13 0.11
0.05 0.05 0.01 0.00 0.00 0.00 0.00 0.00 0.00 0.00 0.00 0.00 0.00 0.00 0.00 0.00 0.00 0.00 0.00 0.00 0.00 0.00 0.00 0.00 0.00 0.00 0.02 0.03 0.04 0.08 0.12 0.20 0.15 0.13 0.16 0.13 0.11 0.16 0.16 0.14 0.11 0.09 0.11 0.13
0.10 0.12 0.05 0.02 0.00 0.00 0.01 0.00 0.00 0.00 0.00 0.00 0.00 0.00 0.00 0.00 0.00 0.00 0.00 0.00 0.00 0.00 0.00 0.00 0.00 0.01 0.01 0.05 0.10 0.05 0.05 0.06 0.07 0.11 0.13 0.08 0.08 0.12 0.11 0.10 0.09 0.08 0.13 0.32
0.19 0.13 0.17 0.09 0.02 0.08 0.03 0.00 0.00 0.00 0.00 0.00 0.00 0.00 0.00 0.00 0.00 0.00 0.00 0.00 0.00 0.00 0.00 0.00 0.00 0.02 0.08 0.11 0.05 0.04 0.03 0.04 0.04 0.05 0.06 0.08 0.07 0.09 0.12 0.13 0.09 0.27 0.42 0.36
0.18 0.23 0.28 0.13 0.07 0.05 0.00 0.00 0.00 0.00 0.00 0.00 0.00 0.00 0.00 0.00 0.00 0.00 0.00 0.00 0.00 0.00 0.00 0.00 0.00 0.00 0.01 0.01 0.01 0.03 0.03 0.02 0.01 0.02 0.03 0.05 0.05 0.08 0.09 0.22 0.45 0.44 0.24 0.08
0.31 0.31 0.31 0.23 0.12 0.04 0.00 0.00 0.00 0.00 0.01 0.00 0.00 0.00 0.00 0.00 0.01 0.00 0.00 0.00 0.00 0.00 0.00 0.00 0.00 0.00 0.00 0.01 0.01 0.01 0.01 0.01 0.01 0.03 0.03 0.03 0.09 0.25 0.36 0.33 0.15 0.03 0.01 0.01
0.22 0.37 0.32 0.27 0.23 0.04 0.00 0.00 0.00 0.04 0.05 0.00 0.00 0.00 0.00 0.00 0.01 0.00 0.00 0.00 0.00 0.00 0.00 0.00 0.00 0.00 0.00 0.00 0.00 0.00 0.01 0.01 0.02 0.05 0.09 0.16 0.20 0.14 0.06 0.02 0.01 0.01 0.00 0.00
0.06 0.15 0.20 0.28 0.29 0.13 0.04 0.08 0.07 0.04 0.02 0.00 0.00 0.00 0.00 0.00 0.00 0.00 0.00 0.00 0.00 0.00 0.00 0.00 0.00 0.00 0.00 0.00 0.00 0.01 0.02 0.03 0.03 0.05 0.06 0.06 0.02 0.00 0.01 0.00 0.00 0.00 0.00 0.00
0.03 0.04 0.07 0.07 0.06 0.04 0.04 0.11 0.11 0.05 0.03 0.01 0.01 0.00 0.01 0.00 0.00 0.00 0.00 0.00 0.00 0.00 0.00 0.00 0.00 0.00 0.00 0.00 0.02 0.04 0.03 0.03 0.03 0.01 0.01 0.01 0.00 0.00 0.00 0.00 0.00 0.00 0.00 0.00
0.00 0.00 0.01 0.04 0.01 0.02 0.03 0.06 0.03 0.01 0.01 0.01 0.01 0.01 0.03 0.03 0.01 0.00 0.00 0.01 0.01 0.00 0.00 0.02 0.02 0.02 0.04 0.05 0.04 0.03 0.02 0.01 0.01 0.01 0.00 0.00 0.00 0.00 0.00 0.00 0.00 0.00 0.00 0.00
0.00 0.02 0.02 0.03 0.00 0.00 0.01 0.05 0.07 0.06 0.02 0.01 0.01 0.01 0.01 0.01 0.01 0.01 0.01 0.02 0.03 0.04 0.04 0.04 0.05 0.06 0.03 0.01 0.01 0.01 0.01 0.01 0.00 0.00 0.00 0.00 0.01 0.00 0.00 0.00 0.00 0.00 0.00 0.00
0.00 0.02 0.05 0.03 0.04 0.03 0.04 0.02 0.02 0.03 0.04 0.03 0.00 0.00 0.00 0.00 0.00 0.01 0.03 0.04 0.03 0.02 0.03 0.03 0.02 0.01 0.01 0.01 0.01 0.00 0.00 0.00 0.00 0.00 0.00 0.02 0.02 0.01 0.01 0.00 0.00 0.00 0.00 0.00

GFSCGP_prec_precacc_069.txt.gz
Total_Precipitation_Accumulation
0.01 0.00 0.00 0.00 0.00 0.00 0.00 0.00 0.00 0.00 0.00 0.00 0.00 0.01 0.02 0.03 0.04 0.04 0.02 0.01 0.01 0.00 0.01 0.05 0.08 0.11 0.12 0.20 0.55 0.68 0.83 0.68 0.43 0.16 0.16 0.11 0.12 0.08 0.06 0.08 0.08 0.08 0.07 0.05
0.00 0.00 0.00 0.00 0.00 0.00 0.00 0.00 0.00 0.00 0.00 0.00 0.00 0.00 0.00 0.01 0.17 0.03 0.01 0.01 0.00 0.00 0.00 0.01 0.02 0.08 0.22 0.43 0.48 0.40 0.31 0.17 0.16 0.11 0.09 0.07 0.09 0.06 0.03 0.04 0.07 0.09 0.10 0.05
0.01 0.00 0.00 0.00 0.00 0.00 0.00 0.00 0.00 0.00 0.00 0.00 0.00 0.00 0.00 0.00 0.02 0.05 0.03 0.03 0.00 0.01 0.03 0.05 0.09 0.12 0.12 0.10 0.06 0.08 0.13 0.08 0.12 0.06 0.03 0.02 0.05 0.10 0.05 0.05 0.09 0.09 0.06 0.05
0.01 0.00 0.00 0.00 0.00 0.00 0.00 0.00 0.00 0.00 0.00 0.00 0.00 0.00 0.02 0.01 0.00 0.05 0.01 0.01 0.02 0.03 0.03 0.02 0.01 0.01 0.00 0.05 0.08 0.12 0.10 0.09 0.03 0.01 0.01 0.01 0.01 0.04 0.06 0.07 0.06 0.08 0.07 0.06
0.01 0.00 0.00 0.00 0.00 0.00 0.00 0.00 0.00 0.00 0.00 0.06 0.02 0.01 0.02 0.02 0.00 0.00 0.01 0.01 0.01 0.00 0.00 0.02 0.01 0.03 0.05 0.04 0.08 0.09 0.10 0.13 0.04 0.02 0.00 0.02 0.01 0.01 0.04 0.06 0.07 0.06 0.04 0.04
0.01 0.00 0.01 0.03 0.00 0.00 0.00 0.00 0.00 0.00 0.00 0.01 0.01 0.03 0.02 0.01 0.02 0.03 0.02 0.01 0.00 0.01 0.08 0.06 0.04 0.06 0.06 0.07 0.20 0.11 0.11 0.08 0.07 0.04 0.01 0.06 0.13 0.08 0.06 0.05 0.04 0.05 0.04 0.02
0.00 0.00 0.00 0.00 0.00 0.00 0.00 0.00 0.01 0.10 0.02 0.01 0.03 0.03 0.01 0.01 0.02 0.11 0.07 0.00 0.00 0.01 0.04 0.02 0.02 0.05 0.05 0.09 0.20 0.10 0.04 0.06 0.04 0.03 0.06 0.10 0.21 0.17 0.17 0.09 0.06 0.13 0.09 0.05
0.01 0.01 0.00 0.00 0.00 0.01 0.00 0.00 0.01 0.17 0.12 0.04 0.05 0.01 0.00 0.00 0.00 0.00 0.00 0.00 0.00 0.00 0.00 0.01 0.02 0.05 0.07 0.17 0.18 0.08 0.03 0.06 0.06 0.13 0.25 0.22 0.21 0.28 0.40 0.30 0.16 0.24 0.15 0.10
0.04 0.02 0.01 0.00 0.00 0.00 0.00 0.00 0.00 0.01 0.02 0.04 0.04 0.01 0.00 0.00 0.00 0.00 0.00 0.00 0.00 0.00 0.00 0.00 0.01 0.00 0.02 0.23 0.17 0.05 0.03 0.02 0.03 0.15 0.26 0.15 0.36 0.63 0.51 0.40 0.37 0.37 0.39 0.36
0.06 0.11 0.02 0.00 0.00 0.00 0.00 0.00 0.00 0.00 0.05 0.05 0.00 0.00 0.01 0.01 0.00 0.00 0.00 0.00 0.00 0.00 0.00 0.00 0.00 0.00 0.01 0.06 0.05 0.02 0.07 0.21 0.18 0.06 0.09 0.12 0.18 0.30 0.40 0.33 0.37 0.59 0.63 0.47
0.00 0.05 0.07 0.00 0.00 0.00 0.00 0.00 0.00 0.00 0.00 0.04 0.03 0.00 0.00 0.00 0.00 0.00 0.00 0.00 0.00 0.00 0.00 0.00 0.00 0.00 0.00 0.00 0.00 0.00 0.01 0.16 0.37 0.59 0.48 0.27 0.37 0.35 0.58 0.60 0.75 0.59 0.55 0.64
0.00 0.00 0.01 0.00 0.00 0.00 0.00 0.00 0.01 0.01 0.00 0.01 0.01 0.00 0.00 0.00 0.00 0.00 0.00 0.00 0.00 0.00 0.00 0.00 0.00 0.00 0.00 0.00 0.00 0.01 0.01 0.13 0.43 1.29 1.38 0.85 0.90 0.78 0.75 0.81 0.77 0.81 0.80 0.75
0.00 0.00 0.00 0.00 0.00 0.01 0.00 0.00 0.00 0.00 0.00 0.01 0.04 0.00 0.00 0.00 0.00 0.00 0.00 0.00 0.00 0.00 0.00 0.00 0.00 0.00 0.00 0.01 0.01 0.04 0.14 0.31 0.90 1.19 1.15 0.92 1.03 1.14 0.94 0.79 0.55 0.34 0.34 0.39
0.01 0.01 0.02 0.04 0.00 0.00 0.00 0.00 0.00 0.00 0.00 0.00 0.00 0.00 0.01 0.01 0.00 0.00 0.00 0.00 0.00 0.00 0.00 0.00 0.01 0.00 0.00 0.01 0.07 0.14 0.29 0.42 0.78 0.57 0.58 0.49 0.47 0.65 0.32 0.33 0.27 0.22 0.16 0.17
0.04 0.02 0.00 0.00 0.00 0.00 0.00 0.00 0.00 0.00 0.00 0.00 0.00 0.00 0.00 0.00 0.00 0.00 0.00 0.00 0.00 0.00 0.00 0.01 0.00 0.01 0.02 0.04 0.09 0.11 0.16 0.23 0.38 0.41 0.42 0.31 0.24 0.27 0.19 0.24 0.23 0.16 0.13 0.13
0.05 0.05 0.01 0.00 0.00 0.00 0.00 0.00 0.00 0.00 0.00 0.00 0.00 0.00 0.00 0.00 0.00 0.00 0.00 0.00 0.00 0.00 0.00 0.00 0.00 0.00 0.02 0.03 0.04 0.08 0.12 0.20 0.15 0.13 0.16 0.13 0.12 0.19 0.19 0.18 0.18 0.15 0.18 0.23
0.10 0.12 0.05 0.02 0.00 0.01 0.01 0.00 0.00 0.00 0.00 0.00 0.00 0.00 0.00 0.00 0.00 0.00 0.00 0.00 0.00 0.00 0.00 0.00 0.00 0.01 0.01 0.05 0.10 0.05 0.05 0.06 0.07 0.11 0.13 0.08 0.09 0.15 0.14 0.14 0.16 0.16 0.23 0.45
0.20 0.13 0.17 0.09 0.02 0.09 0.03 0.00 0.00 0.00 0.00 0.00 0.00 0.00 0.00 0.00 0.00 0.00 0.00 0.00 0.00 0.00 0.00 0.00 0.00 0.02 0.08 0.11 0.05 0.04 0.03 0.04 0.04 0.05 0.06 0.08 0.07 0.12 0.16 0.19 0.15 0.34 0.50 0.47
0.18 0.24 0.30 0.14 0.07 0.05 0.00 0.00 0.00 0.00 0.00 0.00 0.00 0.00 0.00 0.00 0.00 0.00 0.00 0.00 0.00 0.00 0.00 0.00 0.00 0.00 0.01 0.01 0.01 0.03 0.03 0.02 0.01 0.02 0.03 0.06 0.06 0.09 0.10 0.25 0.49 0.48 0.31 0.15
0.34 0.34 0.34 0.25 0.13 0.04 0.00 0.00 0.00 0.00 0.01 0.00 0.00 0.00 0.00 0.00 0.01 0.00 0.00 0.00 0.00 0.00 0.00 0.00 0.00 0.00 0.00 0.01 0.01 0.01 0.01 0.01 0.01 0.03 0.04 0.04 0.10 0.26 0.38 0.34 0.17 0.06 0.05 0.06
0.24 0.40 0.37 0.33 0.28 0.04 0.00 0.00 0.01 0.05 0.06 0.00 0.00 0.00 0.00 0.00 0.01 0.00 0.00 0.00 0.00 0.00 0.00 0.00 0.00 0.00 0.00 0.00 0.00 0.00 0.01 0.01 0.03 0.05 0.10 0.17 0.22 0.16 0.08 0.04 0.05 0.04 0.04 0.05
0.07 0.16 0.21 0.30 0.32 0.13 0.04 0.08 0.08 0.04 0.02 0.01 0.00 0.00 0.00 0.00 0.00 0.00 0.00 0.00 0.00 0.00 0.00 0.00 0.00 0.00 0.00 0.00 0.00 0.01 0.02 0.03 0.05 0.07 0.10 0.13 0.09 0.07 0.06 0.03 0.03 0.02 0.02 0.04
0.03 0.04 0.07 0.07 0.06 0.04 0.04 0.12 0.11 0.05 0.04 0.01 0.01 0.00 0.01 0.00 0.00 0.00 0.00 0.00 0.00 0.00 0.00 0.00 0.00 0.00 0.00 0.00 0.02 0.04 0.03 0.04 0.06 0.07 0.07 0.07 0.05 0.06 0.07 0.08 0.07 0.05 0.07 0.07
0.00 0.00 0.01 0.04 0.01 0.02 0.03 0.06 0.03 0.01 0.01 0.01 0.01 0.01 0.04 0.04 0.01 0.00 0.00 0.01 0.01 0.00 0.00 0.02 0.02 0.02 0.04 0.05 0.04 0.04 0.04 0.06 0.05 0.06 0.04 0.03 0.03 0.03 0.02 0.03 0.04 0.04 0.04 0.06
0.00 0.02 0.02 0.04 0.00 0.00 0.01 0.05 0.07 0.06 0.03 0.01 0.01 0.01 0.01 0.01 0.01 0.02 0.02 0.02 0.03 0.04 0.04 0.04 0.05 0.07 0.04 0.02 0.04 0.04 0.05 0.03 0.03 0.01 0.00 0.00 0.01 0.01 0.00 0.00 0.02 0.02 0.04 0.07
0.01 0.02 0.05 0.03 0.04 0.03 0.04 0.02 0.02 0.03 0.04 0.03 0.01 0.00 0.01 0.01 0.01 0.03 0.05 0.06 0.03 0.02 0.03 0.03 0.02 0.02 0.03 0.02 0.01 0.00 0.00 0.00 0.00 0.00 0.00 0.02 0.02 0.01 0.01 0.00 0.02 0.02 0.01 0.02

GFSCGP_prec_precacc_072.txt.gz
Total_Precipitation_Accumulation
0.01 0.00 0.00 0.00 0.00 0.00 0.00 0.00 0.00 0.00 0.00 0.00 0.00 0.01 0.02 0.03 0.04 0.04 0.02 0.01 0.01 0.00 0.01 0.05 0.08 0.11 0.12 0.20 0.55 0.69 0.84 0.71 0.49 0.24 0.19 0.17 0.17 0.14 0.13 0.14 0.11 0.08 0.07 0.05
0.00 0.00 0.00 0.00 0.00 0.00 0.00 0.00 0.00 0.00 0.00 0.00 0.00 0.00 0.00 0.01 0.17 0.03 0.01 0.01 0.00 0.00 0.00 0.01 0.02 0.08 0.22 0.43 0.48 0.40 0.31 0.18 0.17 0.13 0.10 0.11 0.13 0.09 0.05 0.09 0.10 0.12 0.11 0.05
0.01 0.00 0.00 0.00 0.00 0.00 0.00 0.00 0.00 0.00 0.00 0.00 0.00 0.00 0.00 0.00 0.02 0.05 0.03 0.03 0.00 0.01 0.03 0.05 0.09 0.12 0.12 0.10 0.06 0.09 0.14 0.08 0.12 0.06 0.04 0.04 0.08 0.13 0.07 0.09 0.14 0.16 0.07 0.05
0.01 0.00 0.00 0.00 0.00 0.00 0.00 0.00 0.00 0.00 0.00 0.00 0.00 0.00 0.02 0.01 0.00 0.05 0.01 0.01 0.02 0.03 0.03 0.02 0.01 0.01 0.00 0.05 0.08 0.12 0.10 0.09 0.03 0.01 0.01 0.01 0.01 0.04 0.06 0.07 0.09 0.18 0.13 0.06
0.01 0.00 0.00 0.00 0.00 0.00 0.00 0.00 0.00 0.00 0.00 0.06 0.02 0.01 0.02 0.02 0.00 0.00 0.01 0.01 0.01 0.00 0.00 0.02 0.01 0.03 0.05 0.04 0.08 0.09 0.10 0.13 0.04 0.02 0.00 0.02 0.01 0.01 0.05 0.07 0.10 0.16 0.19 0.06
0.01 0.00 0.01 0.03 0.00 0.00 0.00 0.00 0.00 0.00 0.00 0.01 0.01 0.03 0.02 0.01 0.02 0.03 0.02 0.01 0.00 0.01 0.08 0.06 0.04 0.06 0.06 0.07 0.20 0.11 0.11 0.08 0.07 0.04 0.01 0.06 0.13 0.08 0.06 0.07 0.05 0.08 0.12 0.07
0.00 0.00 0.00 0.00 0.00 0.00 0.00 0.00 0.01 0.10 0.02 0.01 0.03 0.03 0.01 0.01 0.02 0.11 0.07 0.00 0.00 0.01 0.04 0.02 0.02 0.05 0.05 0.09 0.20 0.10 0.04 0.06 0.04 0.03 0.06 0.10 0.21 0.17 0.17 0.09 0.06 0.13 0.09 0.05
0.03 0.02 0.01 0.00 0.00 0.01 0.00 0.00 0.01 0.17 0.12 0.04 0.05 0.01 0.00 0.00 0.00 0.00 0.00 0.00 0.00 0.00 0.00 0.01 0.02 0.05 0.07 0.17 0.18 0.08 0.03 0.06 0.06 0.13 0.25 0.22 0.21 0.28 0.40 0.30 0.16 0.24 0.15 0.10
0.04 0.02 0.01 0.00 0.00 0.00 0.00 0.00 0.00 0.01 0.02 0.04 0.04 0.01 0.00 0.00 0.00 0.00 0.00 0.00 0.00 0.00 0.00 0.00 0.01 0.00 0.02 0.23 0.17 0.05 0.03 0.02 0.03 0.15 0.26 0.15 0.36 0.63 0.51 0.40 0.37 0.37 0.39 0.36
0.06 0.11 0.02 0.00 0.00 0.00 0.00 0.00 0.00 0.00 0.05 0.05 0.00 0.00 0.01 0.01 0.00 0.00 0.00 0.00 0.00 0.00 0.00 0.00 0.00 0.00 0.01 0.06 0.05 0.02 0.07 0.21 0.18 0.06 0.09 0.12 0.18 0.30 0.40 0.33 0.37 0.59 0.63 0.47
0.00 0.05 0.07 0.00 0.00 0.00 0.00 0.00 0.00 0.00 0.00 0.04 0.03 0.00 0.00 0.00 0.00 0.00 0.00 0.00 0.00 0.00 0.00 0.00 0.00 0.00 0.00 0.00 0.00 0.00 0.01 0.16 0.37 0.59 0.48 0.27 0.37 0.35 0.58 0.60 0.75 0.59 0.55 0.64
0.00 0.00 0.01 0.00 0.00 0.00 0.00 0.00 0.01 0.01 0.00 0.01 0.01 0.00 0.00 0.00 0.00 0.00 0.00 0.00 0.00 0.00 0.00 0.00 0.00 0.00 0.00 0.00 0.00 0.01 0.01 0.13 0.43 1.29 1.38 0.85 0.90 0.78 0.75 0.81 0.77 0.81 0.80 0.75
0.00 0.00 0.00 0.00 0.00 0.01 0.00 0.00 0.00 0.00 0.00 0.01 0.04 0.00 0.00 0.00 0.00 0.00 0.00 0.00 0.00 0.00 0.00 0.00 0.00 0.00 0.00 0.01 0.01 0.04 0.14 0.31 0.90 1.19 1.15 0.92 1.03 1.14 0.94 0.79 0.55 0.34 0.34 0.39
0.01 0.01 0.02 0.04 0.00 0.00 0.00 0.00 0.00 0.00 0.00 0.00 0.00 0.00 0.01 0.01 0.00 0.00 0.00 0.00 0.00 0.00 0.00 0.00 0.01 0.00 0.00 0.01 0.07 0.14 0.29 0.42 0.78 0.57 0.58 0.49 0.47 0.65 0.32 0.33 0.27 0.22 0.16 0.17
0.04 0.02 0.00 0.00 0.00 0.00 0.00 0.00 0.00 0.00 0.00 0.00 0.00 0.00 0.00 0.00 0.00 0.00 0.00 0.00 0.00 0.00 0.00 0.01 0.00 0.01 0.02 0.04 0.09 0.11 0.16 0.23 0.38 0.41 0.42 0.31 0.24 0.27 0.19 0.24 0.23 0.16 0.13 0.13
0.05 0.05 0.01 0.00 0.00 0.00 0.00 0.00 0.00 0.00 0.00 0.00 0.00 0.00 0.00 0.00 0.00 0.00 0.00 0.00 0.00 0.00 0.00 0.00 0.00 0.00 0.02 0.03 0.04 0.08 0.12 0.20 0.15 0.13 0.16 0.13 0.12 0.19 0.19 0.18 0.18 0.15 0.18 0.23
0.10 0.13 0.06 0.02 0.00 0.01 0.01 0.00 0.00 0.00 0.00 0.00 0.00 0.00 0.00 0.00 0.00 0.00 0.00 0.00 0.00 0.00 0.00 0.00 0.00 0.01 0.01 0.05 0.10 0.05 0.05 0.06 0.07 0.11 0.13 0.08 0.09 0.15 0.14 0.14 0.16 0.16 0.23 0.45
0.20 0.14 0.18 0.10 0.02 0.09 0.03 0.00 0.00 0.00 0.00 0.00 0.00 0.00 0.00 0.00 0.00 0.00 0.00 0.00 0.00 0.00 0.00 0.00 0.00 0.02 0.08 0.11 0.05 0.04 0.03 0.04 0.04 0.05 0.06 0.08 0.07 0.12 0.16 0.19 0.15 0.34 0.50 0.47
0.18 0.24 0.31 0.14 0.07 0.05 0.00 0.00 0.00 0.00 0.00 0.00 0.00 0.00 0.00 0.00 0.00 0.00 0.00 0.00 0.00 0.00 0.00 0.00 0.00 0.00 0.01 0.01 0.01 0.03 0.03 0.02 0.01 0.02 0.03 0.06 0.06 0.09 0.10 0.25 0.49 0.48 0.31 0.15
0.34 0.34 0.34 0.27 0.14 0.04 0.00 0.00 0.00 0.00 0.01 0.00 0.00 0.00 0.00 0.00 0.01 0.00 0.00 0.00 0.00 0.00 0.00 0.00 0.00 0.00 0.00 0.01 0.01 0.01 0.01 0.01 0.01 0.03 0.04 0.04 0.10 0.26 0.38 0.34 0.17 0.06 0.05 0.07
0.25 0.41 0.38 0.34 0.29 0.04 0.00 0.00 0.02 0.05 0.06 0.00 0.00 0.00 0.00 0.00 0.01 0.00 0.00 0.00 0.00 0.00 0.00 0.00 0.00 0.00 0.00 0.00 0.00 0.00 0.01 0.01 0.03 0.05 0.10 0.17 0.22 0.16 0.09 0.05 0.06 0.05 0.05 0.06
0.08 0.17 0.22 0.31 0.33 0.13 0.04 0.09 0.09 0.04 0.02 0.01 0.00 0.00 0.00 0.00 0.00 0.00 0.00 0.00 0.00 0.00 0.00 0.00 0.00 0.00 0.00 0.00 0.00 0.01 0.02 0.03 0.05 0.07 0.10 0.13 0.09 0.08 0.06 0.05 0.07 0.06 0.04 0.05
0.04 0.05 0.08 0.07 0.06 0.04 0.04 0.13 0.12 0.05 0.04 0.01 0.01 0.00 0.01 0.00 0.00 0.00 0.00 0.00 0.00 0.00 0.00 0.00 0.00 0.00 0.00 0.00 0.02 0.04 0.03 0.04 0.06 0.07 0.07 0.08 0.07 0.08 0.10 0.11 0.09 0.07 0.08 0.08
0.00 0.00 0.01 0.04 0.01 0.02 0.03 0.06 0.03 0.01 0.01 0.01 0.01 0.01 0.04 0.04 0.01 0.00 0.00 0.01 0.01 0.00 0.00 0.02 0.02 0.02 0.05 0.06 0.04 0.04 0.04 0.06 0.06 0.06 0.05 0.05 0.05 0.06 0.04 0.04 0.04 0.04 0.04 0.06
0.00 0.02 0.02 0.04 0.00 0.00 0.01 0.05 0.07 0.06 0.03 0.01 0.01 0.01 0.01 0.01 0.01 0.02 0.02 0.02 0.03 0.04 0.04 0.04 0.06 0.08 0.05 0.04 0.05 0.05 0.06 0.04 0.03 0.01 0.00 0.01 0.02 0.02 0.00 0.01 0.03 0.03 0.05 0.09
0.01 0.02 0.05 0.03 0.04 0.03 0.04 0.02 0.02 0.03 0.04 0.03 0.01 0.00 0.01 0.01 0.01 0.03 0.05 0.06 0.05 0.03 0.05 0.05 0.04 0.04 0.04 0.03 0.03 0.02 0.02 0.02 0.02 0.00 0.00 0.03 0.02 0.01 0.01 0.00 0.03 0.05 0.04 0.05

GFSCGP_prec_precacc_078.txt.gz
Total_Precipitation_Accumulation
0.01 0.00 0.00 0.00 0.00 0.00 0.00 0.00 0.00 0.00 0.00 0.00 0.00 0.01 0.02 0.03 0.04 0.04 0.02 0.01 0.01 0.00 0.01 0.05 0.08 0.11 0.12 0.20 0.55 0.70 0.85 0.72 0.50 0.31 0.29 0.24 0.26 0.16 0.16 0.15 0.11 0.09 0.07 0.05
0.01 0.00 0.00 0.00 0.00 0.00 0.00 0.00 0.00 0.00 0.00 0.00 0.00 0.00 0.00 0.01 0.17 0.03 0.01 0.01 0.00 0.00 0.00 0.01 0.02 0.08 0.22 0.43 0.48 0.41 0.32 0.19 0.17 0.14 0.12 0.12 0.14 0.11 0.07 0.09 0.10 0.12 0.11 0.05
0.02 0.00 0.00 0.00 0.00 0.00 0.00 0.00 0.00 0.00 0.00 0.00 0.00 0.00 0.00 0.00 0.02 0.05 0.03 0.03 0.00 0.01 0.03 0.05 0.09 0.12 0.12 0.10 0.06 0.09 0.14 0.09 0.13 0.07 0.05 0.05 0.13 0.22 0.16 0.14 0.15 0.16 0.07 0.05
0.02 0.00 0.00 0.02 0.01 0.00 0.00 0.00 0.00 0.00 0.00 0.00 0.00 0.00 0.02 0.01 0.00 0.05 0.01 0.01 0.02 0.03 0.03 0.02 0.01 0.01 0.00 0.05 0.08 0.12 0.10 0.10 0.04 0.02 0.02 0.02 0.02 0.08 0.10 0.11 0.11 0.18 0.13 0.06
0.03 0.00 0.01 0.02 0.01 0.00 0.01 0.00 0.00 0.00 0.00 0.06 0.02 0.01 0.02 0.02 0.00 0.00 0.01 0.01 0.01 0.00 0.00 0.02 0.01 0.03 0.05 0.04 0.08 0.09 0.10 0.13 0.04 0.02 0.01 0.03 0.02 0.02 0.06 0.11 0.16 0.20 0.22 0.07
0.01 0.00 0.02 0.04 0.00 0.00 0.01 0.00 0.00 0.00 0.00 0.01 0.01 0.03 0.02 0.01 0.02 0.03 0.02 0.01 0.00 0.01 0.08 0.06 0.04 0.06 0.06 0.07 0.20 0.11 0.11 0.08 0.07 0.05 0.02 0.07 0.14 0.09 0.06 0.08 0.07 0.11 0.17 0.12
0.00 0.00 0.00 0.00 0.01 0.00 0.00 0.00 0.02 0.11 0.02 0.01 0.03 0.03 0.01 0.01 0.02 0.11 0.07 0.00 0.00 0.01 0.04 0.02 0.02 0.05 0.05 0.09 0.20 0.10 0.04 0.06 0.04 0.03 0.06 0.10 0.22 0.18 0.18 0.09 0.07 0.13 0.10 0.07
0.04 0.03 0.01 0.00 0.00 0.01 0.00 0.01 0.05 0.18 0.12 0.05 0.05 0.01 0.00 0.00 0.00 0.00 0.00 0.00 0.00 0.00 0.00 0.01 0.02 0.05 0.07 0.17 0.18 0.08 0.03 0.06 0.06 0.13 0.25 0.22 0.21 0.28 0.40 0.30 0.16 0.24 0.15 0.10
0.04 0.02 0.01 0.00 0.00 0.01 0.01 0.00 0.01 0.03 0.05 0.07 0.04 0.01 0.00 0.00 0.00 0.00 0.00 0.00 0.00 0.00 0.00 0.00 0.01 0.00 0.02 0.23 0.17 0.05 0.03 0.02 0.03 0.15 0.26 0.16 0.36 0.64 0.51 0.40 0.37 0.37 0.39 0.36
0.06 0.11 0.02 0.00 0.00 0.00 0.00 0.00 0.01 0.03 0.07 0.07 0.01 0.00 0.01 0.01 0.00 0.00 0.00 0.00 0.00 0.00 0.00 0.00 0.00 0.00 0.01 0.06 0.05 0.02 0.07 0.21 0.18 0.06 0.09 0.12 0.18 0.30 0.40 0.34 0.37 0.59 0.63 0.47
0.00 0.05 0.07 0.00 0.00 0.00 0.00 0.00 0.02 0.02 0.01 0.05 0.04 0.01 0.00 0.00 0.00 0.00 0.00 0.00 0.00 0.00 0.00 0.00 0.00 0.00 0.00 0.00 0.00 0.00 0.01 0.16 0.37 0.59 0.48 0.27 0.37 0.35 0.58 0.60 0.75 0.59 0.55 0.64
0.00 0.01 0.02 0.00 0.00 0.00 0.00 0.00 0.01 0.04 0.04 0.02 0.02 0.01 0.00 0.00 0.00 0.00 0.00 0.00 0.00 0.00 0.00 0.00 0.00 0.00 0.00 0.00 0.00 0.01 0.01 0.13 0.43 1.29 1.38 0.85 0.90 0.78 0.75 0.81 0.77 0.81 0.80 0.75
0.00 0.00 0.01 0.04 0.03 0.02 0.00 0.00 0.00 0.00 0.02 0.12 0.15 0.02 0.01 0.00 0.00 0.00 0.00 0.00 0.00 0.00 0.00 0.00 0.00 0.00 0.00 0.01 0.01 0.04 0.14 0.31 0.90 1.19 1.15 0.92 1.03 1.14 0.94 0.79 0.55 0.34 0.34 0.39
0.01 0.02 0.06 0.11 0.12 0.04 0.01 0.01 0.01 0.01 0.01 0.01 0.06 0.02 0.02 0.01 0.00 0.00 0.00 0.00 0.00 0.00 0.00 0.00 0.01 0.00 0.00 0.01 0.07 0.14 0.29 0.42 0.78 0.57 0.58 0.49 0.47 0.65 0.32 0.33 0.27 0.22 0.16 0.17
0.05 0.04 0.03 0.04 0.03 0.01 0.06 0.04 0.03 0.05 0.02 0.02 0.01 0.01 0.01 0.00 0.00 0.00 0.00 0.00 0.00 0.00 0.00 0.01 0.00 0.01 0.02 0.04 0.09 0.11 0.16 0.23 0.38 0.41 0.42 0.31 0.24 0.27 0.19 0.24 0.23 0.16 0.13 0.13
0.05 0.05 0.01 0.00 0.01 0.01 0.00 0.01 0.01 0.01 0.01 0.00 0.00 0.01 0.00 0.00 0.00 0.00 0.00 0.00 0.00 0.00 0.00 0.00 0.00 0.00 0.02 0.03 0.04 0.08 0.12 0.20 0.15 0.13 0.16 0.13 0.12 0.19 0.19 0.18 0.18 0.15 0.18 0.23
0.10 0.13 0.06 0.02 0.00 0.01 0.01 0.00 0.00 0.00 0.00 0.00 0.00 0.00 0.00 0.00 0.00 0.00 0.00 0.00 0.00 0.00 0.00 0.00 0.00 0.01 0.01 0.05 0.10 0.05 0.05 0.06 0.07 0.11 0.13 0.08 0.09 0.15 0.14 0.14 0.16 0.16 0.23 0.45
0.20 0.14 0.19 0.10 0.02 0.09 0.03 0.00 0.00 0.00 0.00 0.00 0.00 0.00 0.00 0.00 0.00 0.00 0.00 0.00 0.00 0.00 0.00 0.00 0.00 0.02 0.08 0.11 0.05 0.04 0.03 0.04 0.04 0.05 0.06 0.08 0.07 0.12 0.16 0.19 0.15 0.34 0.50 0.47
0.18 0.24 0.32 0.15 0.07 0.05 0.00 0.00 0.00 0.00 0.00 0.00 0.00 0.00 0.00 0.00 0.00 0.00 0.00 0.00 0.00 0.00 0.00 0.00 0.00 0.00 0.01 0.01 0.01 0.03 0.03 0.02 0.01 0.02 0.03 0.06 0.06 0.09 0.10 0.25 0.49 0.48 0.31 0.15
0.34 0.34 0.36 0.28 0.14 0.04 0.00 0.00 0.00 0.00 0.01 0.00 0.00 0.00 0.00 0.00 0.01 0.00 0.00 0.00 0.00 0.00 0.00 0.00 0.00 0.00 0.00 0.01 0.01 0.01 0.01 0.01 0.01 0.03 0.04 0.04 0.10 0.26 0.38 0.34 0.17 0.06 0.05 0.07
0.27 0.44 0.40 0.35 0.31 0.05 0.00 0.00 0.02 0.07 0.08 0.00 0.00 0.00 0.00 0.00 0.01 0.00 0.00 0.00 0.00 0.00 0.00 0.00 0.00 0.00 0.00 0.00 0.00 0.00 0.01 0.01 0.03 0.05 0.10 0.17 0.22 0.16 0.09 0.05 0.06 0.05 0.05 0.07
0.12 0.21 0.25 0.34 0.38 0.15 0.04 0.10 0.15 0.14 0.05 0.01 0.00 0.00 0.00 0.00 0.00 0.00 0.00 0.00 0.00 0.00 0.00 0.00 0.00 0.00 0.00 0.00 0.00 0.01 0.02 0.03 0.05 0.07 0.10 0.13 0.09 0.08 0.06 0.06 0.08 0.07 0.06 0.07
0.12 0.06 0.10 0.08 0.07 0.04 0.04 0.17 0.14 0.05 0.04 0.01 0.01 0.00 0.01 0.00 0.00 0.00 0.00 0.00 0.00 0.00 0.00 0.00 0.00 0.00 0.00 0.00 0.02 0.04 0.03 0.04 0.06 0.07 0.07 0.08 0.07 0.09 0.14 0.15 0.13 0.11 0.13 0.14
0.02 0.03 0.08 0.13 0.04 0.05 0.10 0.07 0.03 0.01 0.01 0.01 0.01 0.01 0.04 0.04 0.01 0.00 0.00 0.01 0.01 0.00 0.00 0.02 0.02 0.02 0.05 0.06 0.05 0.06 0.06 0.07 0.08 0.08 0.07 0.06 0.06 0.10 0.09 0.11 0.12 0.11 0.11 0.14
0.01 0.05 0.04 0.10 0.06 0.04 0.11 0.17 0.08 0.06 0.03 0.01 0.01 0.01 0.01 0.01 0.01 0.02 0.02 0.02 0.03 0.04 0.04 0.04 0.06 0.08 0.05 0.04 0.08 0.10 0.12 0.11 0.11 0.10 0.09 0.10 0.10 0.09 0.06 0.07 0.13 0.15 0.20 0.31
0.02 0.04 0.09 0.11 0.11 0.09 0.12 0.04 0.02 0.03 0.04 0.03 0.01 0.00 0.01 0.01 0.01 0.03 0.05 0.06 0.05 0.03 0.05 0.06 0.05 0.07 0.08 0.08 0.10 0.11 0.11 0.11 0.13 0.14 0.15 0.20 0.18 0.17 0.15 0.14 0.18 0.24 0.30 0.36

GFSCGP_prec_precacc_081.txt.gz
Total_Precipitation_Accumulation
0.01 0.00 0.00 0.00 0.00 0.00 0.00 0.00 0.00 0.00 0.00 0.00 0.00 0.01 0.02 0.03 0.04 0.04 0.02 0.01 0.01 0.00 0.01 0.05 0.08 0.11 0.12 0.20 0.55 0.70 0.86 0.72 0.51 0.32 0.29 0.24 0.26 0.16 0.16 0.15 0.12 0.09 0.07 0.05
0.01 0.00 0.00 0.00 0.00 0.00 0.00 0.00 0.00 0.00 0.00 0.00 0.00 0.00 0.00 0.01 0.17 0.03 0.01 0.01 0.00 0.00 0.00 0.01 0.02 0.08 0.22 0.43 0.48 0.41 0.32 0.19 0.18 0.14 0.12 0.12 0.14 0.11 0.07 0.09 0.11 0.12 0.11 0.05
0.02 0.00 0.00 0.00 0.00 0.00 0.00 0.00 0.00 0.00 0.00 0.00 0.00 0.00 0.00 0.00 0.02 0.05 0.03 0.03 0.00 0.01 0.03 0.05 0.09 0.12 0.12 0.10 0.06 0.09 0.14 0.09 0.13 0.07 0.05 0.05 0.13 0.22 0.16 0.14 0.15 0.16 0.07 0.05
0.02 0.00 0.00 0.02 0.01 0.00 0.00 0.00 0.00 0.00 0.02 0.03 0.00 0.00 0.02 0.01 0.00 0.05 0.01 0.01 0.02 0.03 0.03 0.02 0.01 0.01 0.00 0.05 0.08 0.12 0.10 0.10 0.04 0.02 0.03 0.02 0.03 0.08 0.10 0.11 0.11 0.18 0.13 0.06
0.03 0.00 0.01 0.02 0.01 0.00 0.02 0.00 0.02 0.06 0.02 0.07 0.02 0.01 0.02 0.02 0.00 0.00 0.01 0.01 0.01 0.00 0.00 0.02 0.01 0.03 0.05 0.04 0.08 0.09 0.10 0.13 0.04 0.02 0.02 0.03 0.03 0.02 0.06 0.11 0.16 0.20 0.22 0.07
0.01 0.00 0.02 0.04 0.01 0.02 0.03 0.03 0.10 0.08 0.05 0.07 0.01 0.03 0.02 0.01 0.02 0.03 0.02 0.01 0.00 0.01 0.08 0.06 0.04 0.06 0.06 0.07 0.20 0.11 0.11 0.08 0.07 0.05 0.03 0.07 0.14 0.09 0.06 0.08 0.07 0.11 0.17 0.12
0.00 0.00 0.00 0.00 0.03 0.01 0.03 0.07 0.20 0.21 0.08 0.04 0.03 0.03 0.01 0.01 0.02 0.11 0.07 0.00 0.00 0.01 0.04 0.02 0.02 0.05 0.05 0.09 0.20 0.10 0.04 0.06 0.04 0.04 0.06 0.11 0.22 0.18 0.18 0.09 0.07 0.13 0.10 0.07
0.04 0.03 0.01 0.00 0.00 0.01 0.02 0.07 0.13 0.21 0.13 0.05 0.05 0.01 0.00 0.00 0.00 0.00 0.00 0.00 0.00 0.00 0.00 0.01 0.02 0.05 0.07 0.17 0.18 0.08 0.03 0.06 0.06 0.13 0.25 0.22 0.21 0.28 0.40 0.30 0.16 0.24 0.15 0.10
0.04 0.02 0.01 0.00 0.00 0.01 0.02 0.02 0.02 0.09 0.15 0.13 0.04 0.01 0.00 0.00 0.00 0.00 0.00 0.00 0.00 0.00 0.00 0.00 0.01 0.00 0.02 0.23 0.17 0.05 0.03 0.02 0.03 0.15 0.27 0.16 0.36 0.64 0.51 0.40 0.37 0.37 0.39 0.36
0.06 0.11 0.02 0.00 0.00 0.00 0.00 0.01 0.10 0.30 0.22 0.13 0.01 0.01 0.01 0.01 0.00 0.00 0.00 0.00 0.00 0.00 0.00 0.00 0.00 0.00 0.01 0.06 0.05 0.02 0.07 0.21 0.18 0.06 0.09 0.12 0.18 0.30 0.40 0.34 0.37 0.59 0.63 0.47
0.00 0.05 0.07 0.00 0.00 0.00 0.00 0.01 0.18 0.18 0.03 0.10 0.07 0.04 0.01 0.01 0.00 0.00 0.00 0.00 0.00 0.00 0.00 0.00 0.00 0.00 0.00 0.00 0.00 0.00 0.01 0.16 0.37 0.59 0.48 0.27 0.37 0.35 0.58 0.60 0.75 0.59 0.55 0.64
0.01 0.01 0.02 0.00 0.00 0.00 0.00 0.01 0.05 0.15 0.10 0.04 0.08 0.11 0.05 0.04 0.00 0.00 0.00 0.00 0.00 0.00 0.00 0.00 0.00 0.00 0.00 0.00 0.00 0.01 0.01 0.13 0.43 1.29 1.38 0.85 0.90 0.78 0.75 0.81 0.77 0.81 0.80 0.75
0.00 0.00 0.01 0.04 0.04 0.03 0.01 0.00 0.05 0.04 0.07 0.23 0.23 0.10 0.11 0.05 0.00 0.00 0.00 0.00 0.00 0.00 0.00 0.00 0.00 0.00 0.01 0.02 0.01 0.04 0.14 0.31 0.90 1.19 1.15 0.92 1.03 1.14 0.94 0.79 0.55 0.34 0.34 0.39
0.01 0.02 0.06 0.13 0.22 0.18 0.12 0.06 0.04 0.07 0.08 0.06 0.12 0.03 0.06 0.10 0.02 0.00 0.00 0.00 0.00 0.00 0.00 0.00 0.01 0.00 0.00 0.02 0.11 0.16 0.30 0.42 0.79 0.57 0.58 0.49 0.47 0.65 0.32 0.33 0.27 0.22 0.16 0.17
0.05 0.04 0.03 0.04 0.04 0.06 0.13 0.09 0.15 0.13 0.10 0.09 0.06 0.05 0.04 0.06 0.08 0.03 0.00 0.00 0.00 0.00 0.00 0.01 0.00 0.01 0.02 0.04 0.13 0.17 0.19 0.23 0.39 0.41 0.42 0.31 0.24 0.27 0.19 0.24 0.23 0.16 0.13 0.13
0.05 0.05 0.01 0.00 0.01 0.01 0.00 0.01 0.08 0.14 0.15 0.09 0.06 0.09 0.02 0.00 0.02 0.01 0.01 0.00 0.00 0.00 0.00 0.00 0.00 0.00 0.02 0.03 0.04 0.10 0.16 0.24 0.17 0.13 0.16 0.13 0.12 0.19 0.19 0.18 0.18 0.15 0.18 0.23
0.11 0.13 0.06 0.02 0.00 0.01 0.01 0.00 0.00 0.00 0.02 0.01 0.00 0.00 0.01 0.00 0.02 0.00 0.00 0.00 0.00 0.00 0.00 0.00 0.00 0.01 0.01 0.05 0.10 0.05 0.05 0.08 0.09 0.13 0.15 0.08 0.09 0.16 0.14 0.14 0.16 0.16 0.23 0.45
0.20 0.14 0.19 0.10 0.02 0.09 0.03 0.00 0.00 0.00 0.00 0.00 0.00 0.00 0.00 0.01 0.00 0.00 0.00 0.00 0.00 0.00 0.00 0.00 0.00 0.02 0.08 0.11 0.05 0.04 0.03 0.04 0.04 0.06 0.08 0.11 0.10 0.13 0.17 0.19 0.15 0.34 0.50 0.47
0.18 0.24 0.32 0.15 0.07 0.05 0.00 0.00 0.00 0.00 0.00 0.00 0.00 0.00 0.00 0.00 0.00 0.00 0.00 0.00 0.00 0.00 0.00 0.00 0.00 0.00 0.01 0.01 0.01 0.03 0.03 0.02 0.01 0.02 0.03 0.06 0.09 0.12 0.13 0.26 0.49 0.48 0.31 0.15
0.34 0.34 0.36 0.29 0.16 0.04 0.00 0.00 0.00 0.00 0.01 0.00 0.00 0.00 0.00 0.00 0.01 0.00 0.00 0.00 0.00 0.00 0.00 0.00 0.00 0.00 0.00 0.01 0.01 0.01 0.01 0.01 0.01 0.03 0.04 0.04 0.11 0.29 0.43 0.38 0.19 0.07 0.05 0.07
0.27 0.45 0.41 0.36 0.32 0.05 0.00 0.00 0.02 0.07 0.09 0.00 0.00 0.00 0.00 0.00 0.01 0.00 0.00 0.00 0.00 0.00 0.00 0.00 0.00 0.00 0.00 0.00 0.00 0.00 0.01 0.01 0.03 0.05 0.10 0.17 0.22 0.17 0.14 0.11 0.11 0.08 0.06 0.08
0.13 0.22 0.27 0.35 0.39 0.15 0.04 0.11 0.16 0.17 0.06 0.01 0.00 0.00 0.00 0.00 0.00 0.00 0.00 0.00 0.00 0.00 0.00 0.00 0.00 0.00 0.00 0.00 0.00 0.01 0.02 0.03 0.05 0.07 0.10 0.13 0.09 0.08 0.07 0.11 0.14 0.13 0.09 0.08
0.20 0.06 0.11 0.08 0.07 0.05 0.10 0.20 0.16 0.09 0.09 0.06 0.01 0.00 0.01 0.00 0.00 0.00 0.00 0.00 0.00 0.00 0.00 0.00 0.00 0.00 0.00 0.00 0.02 0.04 0.03 0.04 0.06 0.07 0.07 0.08 0.07 0.09 0.16 0.20 0.19 0.20 0.21 0.20
0.12 0.13 0.12 0.16 0.10 0.12 0.24 0.19 0.05 0.06 0.01 0.02 0.03 0.02 0.04 0.04 0.01 0.00 0.00 0.01 0.01 0.00 0.00 0.02 0.02 0.02 0.05 0.06 0.05 0.06 0.06 0.07 0.08 0.08 0.07 0.06 0.06 0.10 0.10 0.13 0.15 0.16 0.17 0.20
0.06 0.16 0.15 0.18 0.14 0.19 0.23 0.55 0.14 0.06 0.03 0.01 0.01 0.01 0.01 0.01 0.01 0.02 0.02 0.02 0.03 0.04 0.04 0.04 0.06 0.08 0.05 0.04 0.08 0.10 0.12 0.11 0.11 0.10 0.09 0.10 0.10 0.10 0.08 0.09 0.18 0.19 0.29 0.41
0.04 0.12 0.18 0.27 0.35 0.30 0.30 0.13 0.08 0.04 0.04 0.03 0.01 0.00 0.01 0.01 0.01 0.03 0.05 0.06 0.05 0.03 0.05 0.06 0.05 0.07 0.08 0.08 0.10 0.11 0.11 0.11 0.13 0.14 0.15 0.21 0.18 0.18 0.18 0.18 0.24 0.33 0.41 0.47

GFSCGP_prec_precacc_087.txt.gz
Total_Precipitation_Accumulation
0.01 0.00 0.00 0.00 0.00 0.00 0.00 0.00 0.00 0.00 0.00 0.00 0.00 0.01 0.02 0.03 0.04 0.04 0.02 0.01 0.01 0.00 0.01 0.05 0.08 0.11 0.12 0.20 0.55 0.70 0.86 0.73 0.52 0.32 0.30 0.25 0.27 0.17 0.19 0.18 0.26 0.27 0.18 0.12
0.01 0.00 0.00 0.00 0.00 0.00 0.00 0.00 0.00 0.00 0.00 0.00 0.00 0.00 0.00 0.01 0.17 0.03 0.01 0.01 0.00 0.00 0.00 0.01 0.02 0.08 0.22 0.43 0.48 0.41 0.32 0.20 0.18 0.15 0.12 0.12 0.14 0.11 0.08 0.11 0.18 0.31 0.27 0.13
0.02 0.00 0.00 0.00 0.00 0.00 0.00 0.00 0.00 0.00 0.00 0.00 0.00 0.00 0.00 0.00 0.02 0.05 0.03 0.03 0.00 0.01 0.03 0.05 0.09 0.12 0.12 0.10 0.06 0.09 0.14 0.09 0.14 0.08 0.06 0.05 0.14 0.23 0.17 0.16 0.19 0.30 0.15 0.11
0.02 0.00 0.00 0.02 0.01 0.00 0.00 0.00 0.00 0.01 0.03 0.04 0.00 0.01 0.02 0.01 0.00 0.05 0.01 0.01 0.02 0.03 0.03 0.02 0.01 0.01 0.00 0.05 0.08 0.12 0.10 0.10 0.04 0.03 0.03 0.02 0.03 0.09 0.11 0.12 0.11 0.23 0.18 0.10
0.03 0.00 0.01 0.02 0.01 0.00 0.02 0.00 0.02 0.06 0.02 0.07 0.03 0.06 0.03 0.02 0.00 0.00 0.01 0.01 0.01 0.00 0.00 0.02 0.01 0.03 0.05 0.04 0.08 0.09 0.10 0.13 0.04 0.03 0.02 0.03 0.03 0.02 0.07 0.11 0.16 0.20 0.25 0.08
0.01 0.00 0.02 0.04 0.01 0.02 0.03 0.03 0.11 0.09 0.07 0.12 0.01 0.07 0.04 0.01 0.02 0.03 0.02 0.01 0.00 0.01 0.08 0.06 0.04 0.06 0.06 0.07 0.20 0.11 0.11 0.08 0.07 0.05 0.03 0.07 0.14 0.09 0.07 0.08 0.07 0.11 0.18 0.12
0.00 0.00 0.00 0.00 0.03 0.01 0.04 0.11 0.26 0.28 0.17 0.10 0.03 0.03 0.01 0.01 0.02 0.11 0.07 0.00 0.00 0.01 0.04 0.02 0.02 0.05 0.05 0.09 0.20 0.10 0.04 0.06 0.04 0.04 0.07 0.11 0.22 0.18 0.18 0.09 0.07 0.13 0.10 0.07
0.04 0.03 0.01 0.00 0.00 0.01 0.02 0.14 0.22 0.29 0.17 0.07 0.05 0.01 0.00 0.00 0.00 0.00 0.00 0.00 0.00 0.00 0.00 0.01 0.02 0.05 0.07 0.17 0.18 0.08 0.03 0.06 0.06 0.13 0.25 0.22 0.21 0.28 0.40 0.30 0.16 0.24 0.15 0.10
0.04 0.02 0.01 0.00 0.00 0.01 0.02 0.04 0.04 0.19 0.26 0.22 0.05 0.01 0.01 0.00 0.00 0.00 0.00 0.00 0.00 0.00 0.00 0.00 0.01 0.00 0.02 0.23 0.17 0.05 0.03 0.02 0.03 0.15 0.27 0.16 0.37 0.64 0.51 0.40 0.37 0.37 0.39 0.36
0.06 0.11 0.02 0.00 0.00 0.00 0.00 0.03 0.24 0.46 0.31 0.19 0.01 0.04 0.04 0.02 0.00 0.00 0.00 0.00 0.00 0.00 0.00 0.00 0.00 0.00 0.01 0.06 0.05 0.02 0.07 0.21 0.18 0.06 0.09 0.12 0.18 0.30 0.40 0.34 0.37 0.59 0.63 0.47
0.00 0.05 0.07 0.00 0.00 0.00 0.00 0.03 0.24 0.35 0.13 0.18 0.12 0.17 0.22 0.04 0.02 0.01 0.00 0.00 0.00 0.00 0.00 0.00 0.00 0.00 0.00 0.00 0.00 0.00 0.01 0.16 0.37 0.59 0.48 0.27 0.37 0.36 0.58 0.60 0.75 0.59 0.55 0.64
0.01 0.01 0.02 0.00 0.00 0.00 0.00 0.01 0.06 0.26 0.23 0.14 0.15 0.20 0.43 0.22 0.07 0.00 0.00 0.00 0.00 0.00 0.00 0.00 0.00 0.00 0.00 0.00 0.00 0.02 0.03 0.13 0.43 1.29 1.38 0.85 0.90 0.78 0.75 0.81 0.77 0.81 0.80 0.75
0.00 0.01 0.01 0.04 0.05 0.04 0.04 0.03 0.10 0.11 0.16 0.35 0.40 0.20 0.58 0.62 0.25 0.03 0.00 0.00 0.00 0.00 0.00 0.00 0.00 0.00 0.03 0.04 0.04 0.08 0.16 0.31 0.91 1.21 1.16 0.93 1.04 1.14 0.94 0.79 0.55 0.34 0.34 0.39
0.01 0.02 0.06 0.14 0.24 0.22 0.19 0.16 0.13 0.26 0.31 0.11 0.16 0.06 0.24 0.92 0.74 0.27 0.03 0.00 0.00 0.01 0.01 0.02 0.02 0.04 0.06 0.10 0.28 0.37 0.45 0.50 0.84 0.60 0.61 0.52 0.51 0.68 0.34 0.33 0.27 0.22 0.16 0.17
0.05 0.04 0.03 0.04 0.04 0.07 0.17 0.17 0.34 0.33 0.22 0.26 0.10 0.08 0.10 0.33 0.77 0.55 0.23 0.04 0.01 0.01 0.00 0.02 0.01 0.02 0.03 0.06 0.15 0.24 0.29 0.33 0.46 0.52 0.53 0.43 0.30 0.34 0.24 0.27 0.24 0.16 0.13 0.13
0.05 0.05 0.01 0.00 0.01 0.01 0.00 0.01 0.10 0.23 0.30 0.25 0.20 0.23 0.13 0.25 0.40 0.47 0.44 0.21 0.06 0.03 0.02 0.00 0.00 0.00 0.02 0.03 0.04 0.10 0.16 0.27 0.23 0.20 0.29 0.20 0.18 0.24 0.23 0.24 0.28 0.19 0.19 0.24
0.11 0.13 0.06 0.02 0.00 0.01 0.01 0.00 0.00 0.01 0.05 0.08 0.06 0.05 0.07 0.23 0.18 0.21 0.26 0.38 0.16 0.05 0.03 0.01 0.00 0.01 0.01 0.05 0.10 0.05 0.05 0.08 0.09 0.13 0.24 0.17 0.13 0.19 0.19 0.25 0.24 0.21 0.29 0.53
0.20 0.14 0.20 0.11 0.02 0.09 0.03 0.00 0.00 0.00 0.01 0.00 0.01 0.04 0.05 0.15 0.13 0.08 0.17 0.27 0.23 0.11 0.07 0.03 0.01 0.02 0.08 0.11 0.05 0.04 0.03 0.04 0.04 0.06 0.09 0.13 0.14 0.18 0.24 0.24 0.20 0.40 0.59 0.54
0.18 0.24 0.32 0.16 0.08 0.05 0.00 0.00 0.00 0.00 0.01 0.00 0.00 0.03 0.03 0.00 0.04 0.06 0.06 0.10 0.09 0.08 0.06 0.02 0.00 0.00 0.01 0.01 0.01 0.03 0.03 0.02 0.01 0.02 0.03 0.06 0.09 0.14 0.15 0.29 0.54 0.57 0.41 0.19
0.34 0.34 0.36 0.29 0.16 0.04 0.00 0.00 0.00 0.00 0.02 0.00 0.00 0.01 0.01 0.01 0.02 0.01 0.00 0.03 0.05 0.04 0.01 0.01 0.00 0.00 0.00 0.01 0.01 0.01 0.01 0.01 0.01 0.03 0.04 0.04 0.11 0.29 0.43 0.38 0.20 0.13 0.13 0.09
0.28 0.45 0.41 0.36 0.33 0.06 0.00 0.00 0.02 0.09 0.10 0.01 0.03 0.02 0.01 0.01 0.02 0.01 0.01 0.06 0.05 0.01 0.00 0.00 0.00 0.00 0.00 0.00 0.00 0.00 0.01 0.01 0.03 0.05 0.10 0.17 0.22 0.17 0.14 0.11 0.12 0.09 0.09 0.14
0.19 0.25 0.28 0.36 0.41 0.16 0.05 0.11 0.18 0.18 0.06 0.03 0.04 0.05 0.03 0.02 0.01 0.00 0.00 0.00 0.00 0.00 0.00 0.00 0.00 0.00 0.00 0.00 0.00 0.01 0.02 0.03 0.05 0.07 0.10 0.13 0.09 0.08 0.07 0.11 0.14 0.14 0.12 0.12
0.40 0.20 0.17 0.09 0.08 0.10 0.15 0.22 0.18 0.11 0.14 0.10 0.05 0.03 0.03 0.02 0.01 0.00 0.00 0.00 0.00 0.00 0.00 0.00 0.00 0.00 0.00 0.00 0.02 0.04 0.03 0.04 0.06 0.07 0.07 0.08 0.07 0.09 0.16 0.20 0.19 0.20 0.24 0.23
0.48 0.64 0.62 0.36 0.19 0.15 0.28 0.26 0.08 0.10 0.06 0.04 0.06 0.05 0.05 0.05 0.02 0.01 0.01 0.02 0.01 0.00 0.00 0.02 0.02 0.02 0.05 0.06 0.05 0.06 0.06 0.07 0.08 0.08 0.07 0.06 0.06 0.10 0.10 0.13 0.15 0.16 0.17 0.21
0.34 0.51 0.53 0.72 0.48 0.32 0.29 0.72 0.32 0.10 0.07 0.04 0.02 0.02 0.04 0.04 0.04 0.03 0.02 0.02 0.03 0.04 0.04 0.04 0.06 0.08 0.06 0.04 0.08 0.10 0.12 0.11 0.11 0.10 0.09 0.10 0.10 0.10 0.08 0.10 0.19 0.21 0.32 0.44
0.10 0.29 0.65 0.80 0.97 0.70 0.56 0.41 0.38 0.27 0.14 0.06 0.02 0.01 0.01 0.01 0.01 0.03 0.05 0.06 0.05 0.03 0.05 0.06 0.06 0.07 0.08 0.08 0.11 0.11 0.11 0.11 0.13 0.14 0.15 0.21 0.18 0.18 0.18 0.18 0.24 0.35 0.44 0.51

GFSCGP_prec_precacc_090.txt.gz
Total_Precipitation_Accumulation
0.01 0.00 0.00 0.00 0.00 0.00 0.00 0.00 0.00 0.00 0.00 0.00 0.00 0.01 0.02 0.03 0.04 0.04 0.02 0.01 0.01 0.00 0.01 0.05 0.08 0.11 0.12 0.20 0.55 0.70 0.86 0.73 0.52 0.32 0.30 0.25 0.28 0.18 0.19 0.20 0.36 0.39 0.36 0.39
0.01 0.00 0.00 0.00 0.00 0.00 0.00 0.00 0.00 0.00 0.00 0.00 0.00 0.00 0.00 0.01 0.17 0.03 0.01 0.01 0.00 0.00 0.00 0.01 0.02 0.08 0.22 0.43 0.48 0.41 0.32 0.20 0.19 0.15 0.12 0.12 0.14 0.12 0.08 0.12 0.21 0.57 0.36 0.32
0.02 0.00 0.00 0.00 0.00 0.00 0.00 0.00 0.00 0.00 0.00 0.00 0.00 0.00 0.00 0.00 0.02 0.05 0.03 0.03 0.00 0.01 0.03 0.05 0.09 0.12 0.12 0.10 0.06 0.09 0.14 0.09 0.14 0.08 0.06 0.05 0.14 0.23 0.17 0.16 0.21 0.43 0.32 0.23
0.02 0.00 0.00 0.02 0.01 0.00 0.00 0.00 0.00 0.01 0.03 0.04 0.00 0.01 0.02 0.01 0.00 0.05 0.01 0.01 0.02 0.03 0.03 0.02 0.01 0.01 0.00 0.05 0.08 0.12 0.10 0.10 0.04 0.03 0.03 0.02 0.03 0.09 0.11 0.12 0.12 0.26 0.27 0.22
0.03 0.00 0.01 0.02 0.01 0.00 0.02 0.00 0.02 0.06 0.02 0.07 0.03 0.06 0.03 0.02 0.00 0.00 0.01 0.01 0.01 0.00 0.00 0.02 0.01 0.03 0.05 0.04 0.08 0.09 0.11 0.13 0.04 0.03 0.02 0.04 0.03 0.02 0.07 0.12 0.16 0.22 0.32 0.15
0.01 0.00 0.02 0.04 0.01 0.02 0.03 0.03 0.11 0.09 0.07 0.12 0.01 0.07 0.04 0.01 0.02 0.03 0.02 0.01 0.00 0.01 0.08 0.06 0.04 0.06 0.06 0.07 0.20 0.11 0.11 0.08 0.08 0.05 0.03 0.07 0.14 0.09 0.07 0.08 0.07 0.11 0.20 0.17
0.00 0.00 0.00 0.00 0.03 0.01 0.04 0.11 0.26 0.28 0.17 0.10 0.03 0.03 0.01 0.01 0.02 0.11 0.07 0.00 0.00 0.01 0.04 0.02 0.02 0.05 0.05 0.09 0.20 0.10 0.04 0.06 0.04 0.04 0.07 0.11 0.22 0.18 0.18 0.09 0.07 0.13 0.10 0.09
0.04 0.03 0.01 0.00 0.00 0.01 0.02 0.14 0.22 0.29 0.17 0.08 0.05 0.02 0.00 0.00 0.00 0.00 0.00 0.00 0.00 0.00 0.00 0.01 0.02 0.05 0.07 0.17 0.18 0.08 0.03 0.06 0.06 0.13 0.25 0.22 0.21 0.28 0.40 0.30 0.16 0.24 0.15 0.10
0.04 0.02 0.01 0.00 0.00 0.01 0.02 0.04 0.04 0.19 0.26 0.23 0.05 0.01 0.01 0.00 0.00 0.00 0.00 0.00 0.00 0.00 0.00 0.00 0.01 0.00 0.02 0.23 0.17 0.05 0.03 0.02 0.03 0.15 0.27 0.16 0.37 0.64 0.51 0.40 0.37 0.37 0.39 0.36
0.06 0.11 0.02 0.00 0.00 0.00 0.00 0.03 0.24 0.47 0.36 0.22 0.01 0.04 0.05 0.03 0.01 0.00 0.00 0.00 0.00 0.00 0.00 0.00 0.00 0.00 0.01 0.06 0.05 0.02 0.07 0.21 0.18 0.06 0.09 0.12 0.18 0.30 0.40 0.34 0.37 0.59 0.63 0.47
0.00 0.05 0.07 0.00 0.00 0.00 0.00 0.03 0.24 0.35 0.14 0.23 0.15 0.19 0.33 0.19 0.07 0.01 0.00 0.00 0.00 0.00 0.00 0.00 0.00 0.00 0.00 0.00 0.00 0.00 0.01 0.16 0.37 0.59 0.48 0.27 0.37 0.36 0.58 0.60 0.75 0.59 0.55 0.64
0.01 0.01 0.02 0.00 0.00 0.00 0.00 0.01 0.06 0.26 0.24 0.16 0.19 0.22 0.46 0.27 0.13 0.05 0.01 0.01 0.00 0.00 0.00 0.00 0.00 0.00 0.00 0.00 0.00 0.02 0.05 0.15 0.43 1.29 1.38 0.86 0.90 0.78 0.75 0.81 0.77 0.81 0.80 0.75
0.00 0.01 0.01 0.05 0.06 0.04 0.04 0.03 0.10 0.14 0.24 0.39 0.44 0.20 0.59 0.63 0.36 0.16 0.06 0.01 0.01 0.01 0.00 0.00 0.00 0.00 0.03 0.04 0.05 0.11 0.19 0.33 0.91 1.21 1.16 0.93 1.04 1.14 0.94 0.79 0.55 0.34 0.34 0.39
0.01 0.02 0.06 0.14 0.24 0.22 0.19 0.16 0.13 0.27 0.35 0.17 0.20 0.06 0.24 0.92 0.80 0.51 0.25 0.06 0.01 0.02 0.04 0.05 0.04 0.05 0.08 0.14 0.34 0.46 0.54 0.58 0.91 0.69 0.68 0.58 0.54 0.70 0.35 0.33 0.27 0.22 0.16 0.17
0.05 0.04 0.03 0.04 0.04 0.07 0.17 0.17 0.34 0.33 0.22 0.29 0.11 0.09 0.11 0.34 0.79 0.65 0.54 0.30 0.03 0.02 0.02 0.04 0.05 0.08 0.11 0.14 0.26 0.33 0.36 0.37 0.52 0.59 0.59 0.46 0.31 0.36 0.25 0.29 0.25 0.16 0.14 0.13
0.05 0.05 0.01 0.00 0.01 0.01 0.00 0.01 0.10 0.23 0.30 0.25 0.21 0.24 0.13 0.26 0.42 0.50 0.63 0.61 0.26 0.06 0.02 0.01 0.00 0.01 0.04 0.04 0.07 0.12 0.18 0.27 0.24 0.23 0.32 0.22 0.18 0.24 0.23 0.26 0.30 0.21 0.22 0.25
0.11 0.13 0.06 0.02 0.00 0.01 0.01 0.00 0.00 0.01 0.05 0.08 0.06 0.07 0.09 0.33 0.25 0.24 0.48 0.64 0.46 0.31 0.11 0.04 0.02 0.01 0.02 0.07 0.12 0.06 0.06 0.09 0.09 0.13 0.25 0.18 0.14 0.20 0.20 0.26 0.25 0.23 0.31 0.53
0.20 0.14 0.20 0.11 0.02 0.09 0.03 0.00 0.00 0.00 0.01 0.00 0.01 0.04 0.11 0.25 0.24 0.23 0.42 0.52 0.50 0.37 0.30 0.20 0.08 0.05 0.09 0.11 0.05 0.04 0.03 0.04 0.04 0.06 0.09 0.13 0.14 0.18 0.24 0.25 0.21 0.41 0.60 0.55
0.18 0.24 0.32 0.16 0.08 0.05 0.00 0.00 0.00 0.00 0.01 0.00 0.00 0.04 0.09 0.10 0.11 0.28 0.35 0.27 0.35 0.27 0.21 0.12 0.11 0.05 0.02 0.01 0.01 0.03 0.03 0.02 0.01 0.02 0.03 0.06 0.09 0.14 0.15 0.29 0.54 0.57 0.41 0.19
0.34 0.34 0.36 0.29 0.16 0.04 0.00 0.00 0.00 0.00 0.02 0.00 0.00 0.01 0.01 0.07 0.14 0.05 0.10 0.08 0.22 0.16 0.06 0.03 0.01 0.01 0.02 0.01 0.01 0.01 0.01 0.01 0.01 0.03 0.04 0.04 0.11 0.29 0.43 0.38 0.20 0.13 0.13 0.09
0.28 0.45 0.41 0.36 0.33 0.06 0.00 0.00 0.02 0.09 0.10 0.01 0.04 0.03 0.02 0.02 0.04 0.03 0.02 0.13 0.25 0.07 0.01 0.00 0.00 0.00 0.00 0.00 0.00 0.00 0.01 0.01 0.03 0.05 0.10 0.17 0.22 0.17 0.14 0.11 0.12 0.09 0.09 0.14
0.19 0.25 0.28 0.36 0.42 0.16 0.05 0.11 0.18 0.18 0.06 0.03 0.06 0.06 0.05 0.03 0.02 0.02 0.02 0.01 0.01 0.01 0.01 0.00 0.00 0.00 0.00 0.00 0.00 0.01 0.02 0.03 0.05 0.07 0.10 0.13 0.09 0.08 0.07 0.11 0.14 0.14 0.12 0.12
0.41 0.21 0.19 0.11 0.09 0.11 0.15 0.23 0.18 0.11 0.14 0.10 0.06 0.06 0.11 0.22 0.31 0.31 0.16 0.01 0.00 0.00 0.00 0.00 0.00 0.00 0.00 0.00 0.02 0.04 0.03 0.04 0.06 0.07 0.07 0.08 0.07 0.09 0.16 0.20 0.19 0.20 0.24 0.23
0.48 0.64 0.69 0.66 0.43 0.17 0.29 0.28 0.09 0.11 0.07 0.05 0.07 0.06 0.09 0.13 0.11 0.10 0.07 0.04 0.02 0.01 0.01 0.02 0.02 0.02 0.05 0.06 0.05 0.06 0.06 0.07 0.08 0.08 0.07 0.06 0.06 0.10 0.10 0.13 0.15 0.16 0.18 0.21
0.35 0.52 0.62 0.94 0.64 0.41 0.39 0.81 0.35 0.12 0.08 0.05 0.03 0.02 0.04 0.04 0.04 0.05 0.04 0.02 0.03 0.04 0.04 0.04 0.06 0.08 0.06 0.05 0.08 0.11 0.12 0.11 0.11 0.10 0.09 0.10 0.10 0.10 0.08 0.11 0.20 0.22 0.34 0.45
0.14 0.33 0.69 0.87 1.09 0.88 0.76 0.62 0.52 0.34 0.21 0.11 0.05 0.02 0.02 0.01 0.01 0.03 0.05 0.07 0.05 0.04 0.05 0.06 0.06 0.07 0.09 0.08 0.11 0.12 0.11 0.11 0.13 0.14 0.15 0.21 0.19 0.18 0.18 0.18 0.25 0.36 0.45 0.52

GFSCGP_prec_precacc_096.txt.gz
Total_Precipitation_Accumulation
0.01 0.00 0.00 0.00 0.00 0.00 0.00 0.00 0.00 0.00 0.00 0.00 0.00 0.01 0.02 0.03 0.04 0.04 0.02 0.01 0.01 0.00 0.01 0.05 0.08 0.11 0.12 0.20 0.55 0.70 0.86 0.73 0.52 0.32 0.30 0.26 0.28 0.19 0.21 0.21 0.40 0.49 0.78 0.87
0.02 0.01 0.00 0.00 0.00 0.00 0.01 0.00 0.00 0.00 0.00 0.00 0.00 0.00 0.00 0.01 0.17 0.03 0.01 0.01 0.00 0.00 0.00 0.01 0.02 0.08 0.22 0.43 0.48 0.41 0.32 0.20 0.19 0.15 0.12 0.12 0.15 0.12 0.09 0.13 0.25 0.73 0.73 0.72
0.03 0.01 0.00 0.00 0.00 0.00 0.00 0.00 0.00 0.00 0.00 0.00 0.00 0.00 0.00 0.00 0.02 0.05 0.03 0.03 0.00 0.01 0.03 0.05 0.09 0.12 0.12 0.10 0.06 0.09 0.14 0.09 0.14 0.08 0.06 0.05 0.14 0.24 0.18 0.17 0.24 0.50 0.47 0.55
0.03 0.00 0.00 0.03 0.02 0.00 0.00 0.00 0.00 0.01 0.03 0.04 0.00 0.01 0.02 0.01 0.00 0.05 0.01 0.01 0.02 0.03 0.03 0.02 0.01 0.01 0.00 0.05 0.08 0.12 0.10 0.10 0.04 0.03 0.03 0.02 0.03 0.09 0.11 0.13 0.14 0.29 0.33 0.40
0.03 0.00 0.01 0.02 0.01 0.00 0.02 0.00 0.02 0.06 0.02 0.07 0.03 0.06 0.03 0.02 0.00 0.00 0.01 0.01 0.01 0.00 0.00 0.02 0.01 0.03 0.05 0.04 0.08 0.09 0.11 0.13 0.05 0.03 0.02 0.04 0.03 0.02 0.07 0.12 0.18 0.24 0.33 0.29
0.01 0.00 0.02 0.05 0.01 0.02 0.03 0.03 0.11 0.09 0.07 0.12 0.01 0.07 0.04 0.01 0.02 0.03 0.02 0.01 0.00 0.01 0.08 0.06 0.04 0.06 0.06 0.07 0.20 0.11 0.11 0.09 0.08 0.06 0.03 0.08 0.14 0.09 0.07 0.09 0.08 0.12 0.22 0.22
0.01 0.00 0.00 0.00 0.03 0.01 0.04 0.11 0.26 0.28 0.17 0.10 0.03 0.03 0.01 0.01 0.02 0.11 0.07 0.00 0.00 0.01 0.04 0.02 0.02 0.05 0.05 0.09 0.20 0.10 0.05 0.06 0.04 0.04 0.07 0.11 0.22 0.18 0.18 0.10 0.07 0.13 0.12 0.10
0.05 0.03 0.01 0.00 0.00 0.01 0.02 0.14 0.22 0.29 0.17 0.08 0.05 0.02 0.00 0.00 0.00 0.00 0.00 0.00 0.00 0.00 0.00 0.01 0.02 0.05 0.07 0.17 0.18 0.09 0.04 0.06 0.06 0.14 0.26 0.23 0.21 0.29 0.40 0.30 0.17 0.25 0.15 0.11
0.04 0.02 0.01 0.00 0.00 0.01 0.02 0.04 0.04 0.19 0.26 0.23 0.05 0.01 0.01 0.00 0.00 0.00 0.00 0.00 0.00 0.00 0.00 0.00 0.01 0.00 0.02 0.23 0.17 0.05 0.03 0.02 0.03 0.15 0.27 0.16 0.37 0.64 0.51 0.40 0.38 0.37 0.39 0.37
0.06 0.11 0.02 0.00 0.00 0.00 0.00 0.03 0.24 0.47 0.37 0.22 0.01 0.04 0.06 0.03 0.01 0.00 0.00 0.00 0.00 0.00 0.00 0.00 0.00 0.00 0.01 0.06 0.05 0.02 0.08 0.22 0.18 0.06 0.09 0.12 0.18 0.31 0.40 0.34 0.37 0.59 0.63 0.47
0.00 0.05 0.07 0.00 0.00 0.00 0.00 0.03 0.24 0.35 0.14 0.23 0.15 0.19 0.34 0.19 0.07 0.02 0.00 0.01 0.01 0.01 0.00 0.00 0.01 0.00 0.00 0.00 0.00 0.01 0.02 0.18 0.38 0.59 0.48 0.27 0.37 0.36 0.58 0.60 0.75 0.59 0.55 0.64
0.02 0.01 0.02 0.01 0.00 0.00 0.00 0.01 0.06 0.26 0.24 0.16 0.20 0.23 0.46 0.27 0.14 0.07 0.06 0.04 0.03 0.07 0.11 0.04 0.02 0.01 0.01 0.01 0.01 0.04 0.06 0.17 0.45 1.30 1.39 0.86 0.90 0.78 0.75 0.81 0.78 0.81 0.80 0.75
0.01 0.03 0.05 0.13 0.09 0.04 0.04 0.03 0.10 0.14 0.24 0.40 0.46 0.21 0.59 0.63 0.36 0.17 0.12 0.09 0.07 0.12 0.17 0.14 0.06 0.06 0.08 0.08 0.08 0.13 0.21 0.35 0.95 1.25 1.20 0.93 1.04 1.15 0.94 0.80 0.56 0.34 0.35 0.40
0.02 0.03 0.09 0.17 0.26 0.22 0.19 0.16 0.13 0.27 0.35 0.17 0.20 0.06 0.24 0.92 0.81 0.52 0.33 0.19 0.30 0.30 0.26 0.26 0.21 0.15 0.15 0.21 0.40 0.52 0.62 0.67 1.02 0.82 0.84 0.65 0.56 0.70 0.35 0.34 0.28 0.22 0.17 0.17
0.06 0.04 0.03 0.04 0.04 0.07 0.17 0.17 0.34 0.33 0.22 0.29 0.11 0.09 0.11 0.34 0.80 0.67 0.60 0.45 0.44 0.72 0.50 0.46 0.29 0.26 0.23 0.24 0.34 0.43 0.51 0.61 0.72 0.77 0.80 0.60 0.35 0.36 0.26 0.30 0.26 0.16 0.14 0.14
0.08 0.05 0.01 0.00 0.01 0.01 0.00 0.01 0.10 0.23 0.30 0.25 0.21 0.24 0.13 0.26 0.47 0.61 0.74 0.74 0.47 0.65 0.61 0.73 0.44 0.23 0.24 0.22 0.19 0.26 0.35 0.47 0.42 0.36 0.47 0.37 0.26 0.27 0.24 0.27 0.30 0.22 0.23 0.26
0.11 0.13 0.06 0.02 0.00 0.01 0.01 0.00 0.00 0.01 0.05 0.08 0.06 0.07 0.10 0.35 0.33 0.60 0.73 0.80 0.71 0.67 0.61 0.72 0.50 0.22 0.11 0.20 0.24 0.23 0.25 0.35 0.34 0.35 0.39 0.29 0.24 0.32 0.28 0.30 0.27 0.26 0.34 0.58
0.20 0.14 0.20 0.11 0.02 0.09 0.03 0.00 0.00 0.00 0.01 0.00 0.01 0.05 0.12 0.29 0.34 0.62 0.74 0.80 0.88 0.81 0.81 1.01 0.89 0.39 0.22 0.22 0.12 0.11 0.13 0.19 0.33 0.32 0.37 0.37 0.31 0.30 0.34 0.30 0.24 0.43 0.63 0.58
0.18 0.24 0.32 0.16 0.08 0.05 0.00 0.00 0.00 0.00 0.01 0.00 0.00 0.04 0.09 0.11 0.18 0.51 0.74 0.52 0.72 0.63 0.48 0.36 0.47 0.54 0.30 0.10 0.05 0.06 0.06 0.05 0.04 0.11 0.13 0.23 0.30 0.36 0.31 0.37 0.57 0.58 0.42 0.20
0.34 0.34 0.36 0.29 0.16 0.04 0.00 0.00 0.00 0.00 0.02 0.00 0.00 0.01 0.01 0.09 0.22 0.15 0.28 0.33 0.50 0.31 0.16 0.06 0.05 0.11 0.21 0.18 0.10 0.07 0.06 0.04 0.03 0.05 0.07 0.07 0.15 0.33 0.47 0.44 0.24 0.14 0.13 0.09
0.28 0.45 0.41 0.36 0.33 0.06 0.00 0.00 0.02 0.09 0.10 0.01 0.04 0.03 0.04 0.06 0.09 0.16 0.12 0.36 0.54 0.10 0.02 0.01 0.01 0.01 0.01 0.04 0.06 0.07 0.07 0.08 0.07 0.07 0.11 0.19 0.24 0.18 0.15 0.11 0.12 0.09 0.09 0.14
0.19 0.26 0.28 0.36 0.42 0.16 0.05 0.11 0.18 0.19 0.07 0.03 0.06 0.07 0.08 0.14 0.25 0.33 0.37 0.35 0.17 0.02 0.01 0.00 0.00 0.00 0.00 0.00 0.00 0.03 0.04 0.05 0.06 0.09 0.11 0.14 0.10 0.09 0.07 0.11 0.14 0.14 0.12 0.12
0.42 0.23 0.20 0.14 0.16 0.18 0.17 0.24 0.20 0.13 0.16 0.14 0.11 0.09 0.15 0.36 0.59 0.70 0.67 0.53 0.26 0.07 0.01 0.00 0.00 0.00 0.00 0.00 0.02 0.04 0.04 0.05 0.06 0.07 0.07 0.08 0.07 0.09 0.16 0.21 0.19 0.20 0.24 0.24
0.49 0.65 0.71 0.72 0.58 0.31 0.35 0.31 0.13 0.17 0.25 0.20 0.13 0.14 0.20 0.27 0.37 0.41 0.39 0.35 0.22 0.06 0.01 0.02 0.02 0.02 0.05 0.06 0.06 0.06 0.06 0.07 0.08 0.08 0.07 0.06 0.06 0.10 0.10 0.13 0.15 0.16 0.18 0.21
0.36 0.53 0.64 1.04 0.73 0.51 0.44 0.91 0.47 0.21 0.15 0.10 0.05 0.03 0.05 0.04 0.05 0.06 0.04 0.03 0.03 0.04 0.04 0.04 0.06 0.08 0.06 0.05 0.08 0.11 0.13 0.11 0.11 0.10 0.09 0.10 0.10 0.10 0.08 0.12 0.21 0.23 0.36 0.46
0.15 0.39 0.74 0.93 1.15 0.97 0.86 0.77 0.69 0.48 0.31 0.16 0.07 0.04 0.03 0.01 0.01 0.03 0.05 0.07 0.05 0.04 0.05 0.06 0.06 0.07 0.09 0.08 0.11 0.12 0.11 0.11 0.13 0.14 0.15 0.21 0.19 0.18 0.18 0.18 0.26 0.37 0.46 0.53

GFSCGP_prec_precacc_099.txt.gz
Total_Precipitation_Accumulation
0.01 0.00 0.00 0.00 0.00 0.00 0.00 0.00 0.01 0.00 0.00 0.00 0.00 0.01 0.02 0.03 0.04 0.04 0.02 0.01 0.01 0.00 0.01 0.05 0.08 0.11 0.12 0.20 0.55 0.70 0.86 0.73 0.52 0.32 0.30 0.26 0.28 0.20 0.21 0.22 0.40 0.51 0.81 0.91
0.02 0.01 0.00 0.00 0.00 0.00 0.03 0.05 0.01 0.00 0.00 0.00 0.00 0.00 0.00 0.01 0.17 0.03 0.01 0.01 0.00 0.00 0.00 0.01 0.02 0.08 0.22 0.43 0.48 0.41 0.32 0.20 0.19 0.15 0.12 0.12 0.15 0.13 0.09 0.14 0.26 0.76 0.77 0.74
0.03 0.01 0.00 0.00 0.00 0.00 0.00 0.00 0.00 0.00 0.00 0.00 0.00 0.00 0.00 0.00 0.02 0.05 0.03 0.03 0.00 0.01 0.03 0.05 0.09 0.12 0.12 0.10 0.06 0.09 0.14 0.09 0.14 0.08 0.06 0.05 0.14 0.24 0.19 0.18 0.25 0.51 0.48 0.56
0.03 0.00 0.00 0.03 0.02 0.00 0.00 0.00 0.00 0.01 0.03 0.04 0.00 0.01 0.02 0.01 0.00 0.05 0.01 0.01 0.02 0.03 0.03 0.02 0.01 0.01 0.00 0.05 0.08 0.12 0.10 0.10 0.04 0.03 0.03 0.02 0.03 0.09 0.11 0.13 0.14 0.29 0.33 0.41
0.03 0.00 0.01 0.02 0.01 0.00 0.02 0.00 0.02 0.06 0.02 0.07 0.03 0.06 0.03 0.02 0.00 0.00 0.01 0.01 0.01 0.00 0.00 0.02 0.01 0.03 0.05 0.04 0.08 0.09 0.11 0.13 0.05 0.03 0.02 0.04 0.03 0.02 0.07 0.13 0.18 0.25 0.34 0.30
0.01 0.00 0.02 0.05 0.01 0.02 0.03 0.03 0.11 0.09 0.07 0.12 0.01 0.07 0.04 0.01 0.02 0.03 0.02 0.01 0.00 0.01 0.08 0.06 0.04 0.06 0.06 0.07 0.20 0.11 0.11 0.09 0.08 0.06 0.03 0.08 0.14 0.09 0.07 0.09 0.09 0.13 0.22 0.22
0.06 0.02 0.00 0.00 0.03 0.01 0.04 0.11 0.27 0.29 0.18 0.10 0.03 0.03 0.01 0.01 0.02 0.11 0.07 0.00 0.00 0.01 0.04 0.02 0.02 0.05 0.05 0.09 0.20 0.10 0.05 0.06 0.05 0.04 0.07 0.11 0.22 0.18 0.18 0.10 0.08 0.14 0.12 0.10
0.09 0.05 0.02 0.00 0.00 0.01 0.02 0.14 0.23 0.30 0.18 0.08 0.05 0.02 0.00 0.00 0.00 0.00 0.00 0.00 0.00 0.00 0.00 0.01 0.02 0.05 0.07 0.17 0.18 0.09 0.04 0.06 0.07 0.14 0.26 0.23 0.21 0.29 0.40 0.30 0.17 0.26 0.16 0.11
0.05 0.03 0.01 0.00 0.00 0.01 0.02 0.05 0.05 0.20 0.26 0.23 0.05 0.01 0.01 0.00 0.00 0.00 0.00 0.00 0.00 0.00 0.00 0.00 0.01 0.00 0.02 0.23 0.17 0.05 0.03 0.02 0.04 0.15 0.27 0.16 0.37 0.64 0.51 0.40 0.38 0.38 0.40 0.37
0.06 0.12 0.02 0.00 0.01 0.01 0.00 0.03 0.25 0.47 0.37 0.22 0.01 0.04 0.09 0.05 0.01 0.00 0.00 0.00 0.00 0.00 0.00 0.00 0.00 0.00 0.01 0.06 0.05 0.02 0.08 0.22 0.19 0.07 0.09 0.12 0.18 0.31 0.40 0.34 0.38 0.60 0.64 0.48
0.00 0.06 0.08 0.00 0.02 0.01 0.00 0.04 0.24 0.35 0.14 0.25 0.16 0.24 0.36 0.19 0.07 0.02 0.00 0.01 0.01 0.01 0.00 0.00 0.01 0.00 0.00 0.00 0.00 0.02 0.03 0.18 0.38 0.59 0.49 0.27 0.37 0.36 0.58 0.60 0.76 0.60 0.55 0.64
0.03 0.02 0.03 0.01 0.00 0.01 0.00 0.01 0.06 0.28 0.25 0.17 0.21 0.30 0.47 0.27 0.14 0.07 0.06 0.04 0.03 0.07 0.11 0.04 0.02 0.02 0.01 0.02 0.03 0.04 0.07 0.17 0.46 1.31 1.39 0.86 0.90 0.78 0.75 0.81 0.78 0.81 0.80 0.75
0.04 0.06 0.06 0.18 0.11 0.06 0.05 0.03 0.10 0.16 0.26 0.41 0.48 0.30 0.60 0.63 0.36 0.17 0.12 0.09 0.07 0.12 0.17 0.14 0.07 0.07 0.11 0.13 0.10 0.15 0.23 0.36 0.96 1.26 1.20 0.94 1.05 1.15 0.94 0.80 0.57 0.35 0.35 0.40
0.03 0.06 0.12 0.19 0.26 0.23 0.21 0.18 0.15 0.28 0.36 0.18 0.21 0.07 0.24 0.92 0.81 0.52 0.33 0.19 0.30 0.30 0.26 0.26 0.21 0.17 0.19 0.27 0.47 0.57 0.66 0.71 1.07 0.87 0.87 0.68 0.58 0.71 0.36 0.34 0.29 0.23 0.18 0.18
0.08 0.07 0.10 0.07 0.04 0.07 0.19 0.20 0.36 0.34 0.23 0.29 0.11 0.09 0.12 0.35 0.81 0.68 0.61 0.46 0.44 0.72 0.50 0.49 0.33 0.31 0.29 0.31 0.42 0.50 0.58 0.68 0.82 0.86 0.87 0.65 0.38 0.37 0.27 0.31 0.27 0.17 0.14 0.14
0.10 0.06 0.02 0.00 0.01 0.01 0.00 0.01 0.10 0.23 0.30 0.25 0.21 0.25 0.15 0.27 0.47 0.62 0.74 0.75 0.49 0.66 0.67 0.86 0.61 0.39 0.37 0.32 0.30 0.34 0.43 0.54 0.51 0.46 0.54 0.46 0.34 0.30 0.25 0.27 0.31 0.22 0.23 0.27
0.12 0.13 0.06 0.02 0.00 0.01 0.01 0.00 0.00 0.01 0.05 0.08 0.06 0.08 0.13 0.35 0.33 0.60 0.74 0.82 0.73 0.69 0.66 0.93 0.85 0.58 0.40 0.43 0.40 0.37 0.36 0.43 0.41 0.45 0.50 0.40 0.32 0.36 0.30 0.31 0.29 0.28 0.35 0.58
0.20 0.14 0.20 0.11 0.02 0.09 0.03 0.00 0.00 0.00 0.01 0.00 0.01 0.05 0.13 0.29 0.35 0.63 0.76 0.81 0.90 0.84 0.86 1.11 1.17 0.86 0.55 0.45 0.31 0.29 0.31 0.33 0.51 0.50 0.59 0.57 0.47 0.39 0.40 0.39 0.31 0.49 0.66 0.62
0.18 0.24 0.32 0.16 0.08 0.05 0.00 0.00 0.00 0.00 0.01 0.00 0.00 0.04 0.10 0.11 0.19 0.53 0.77 0.54 0.75 0.69 0.50 0.37 0.57 0.83 0.77 0.50 0.28 0.20 0.23 0.19 0.21 0.37 0.35 0.43 0.53 0.61 0.55 0.58 0.77 0.75 0.58 0.32
0.34 0.34 0.36 0.29 0.16 0.05 0.02 0.00 0.00 0.00 0.03 0.00 0.00 0.01 0.02 0.10 0.25 0.19 0.31 0.36 0.54 0.33 0.16 0.06 0.05 0.12 0.30 0.46 0.47 0.29 0.21 0.25 0.20 0.19 0.24 0.26 0.31 0.48 0.71 0.70 0.51 0.37 0.35 0.25
0.28 0.45 0.41 0.36 0.33 0.06 0.00 0.00 0.02 0.10 0.13 0.01 0.04 0.03 0.04 0.07 0.16 0.25 0.19 0.43 0.60 0.11 0.02 0.01 0.01 0.01 0.01 0.05 0.16 0.24 0.23 0.29 0.28 0.16 0.16 0.29 0.38 0.24 0.18 0.15 0.20 0.20 0.19 0.22
0.20 0.27 0.29 0.37 0.42 0.17 0.05 0.11 0.18 0.21 0.08 0.04 0.07 0.07 0.08 0.14 0.28 0.40 0.47 0.49 0.27 0.06 0.01 0.00 0.00 0.00 0.00 0.00 0.01 0.06 0.09 0.09 0.13 0.19 0.18 0.16 0.12 0.12 0.10 0.14 0.16 0.16 0.14 0.13
0.44 0.24 0.21 0.15 0.17 0.20 0.18 0.25 0.21 0.14 0.16 0.15 0.12 0.10 0.15 0.37 0.61 0.73 0.70 0.56 0.31 0.09 0.01 0.00 0.00 0.00 0.00 0.00 0.02 0.04 0.05 0.06 0.07 0.08 0.10 0.12 0.09 0.10 0.16 0.22 0.21 0.21 0.25 0.24
0.49 0.65 0.73 0.75 0.59 0.31 0.35 0.31 0.14 0.18 0.26 0.22 0.14 0.15 0.20 0.28 0.37 0.41 0.39 0.35 0.22 0.06 0.01 0.02 0.02 0.02 0.05 0.06 0.06 0.06 0.06 0.07 0.08 0.09 0.07 0.07 0.07 0.11 0.10 0.13 0.16 0.17 0.19 0.22
0.37 0.53 0.65 1.06 0.74 0.53 0.44 0.91 0.47 0.22 0.15 0.10 0.05 0.03 0.05 0.04 0.05 0.06 0.04 0.03 0.03 0.04 0.04 0.04 0.06 0.08 0.06 0.05 0.08 0.11 0.13 0.11 0.11 0.10 0.09 0.10 0.10 0.10 0.08 0.12 0.21 0.24 0.37 0.46
0.15 0.39 0.77 0.96 1.16 0.99 0.87 0.78 0.69 0.49 0.31 0.16 0.07 0.04 0.03 0.01 0.01 0.03 0.05 0.07 0.05 0.04 0.05 0.06 0.06 0.07 0.09 0.08 0.11 0.12 0.11 0.11 0.13 0.14 0.15 0.21 0.19 0.18 0.18 0.18 0.26 0.37 0.47 0.53

GFSCGP_prec_precacc_102.txt.gz
Total_Precipitation_Accumulation
0.01 0.00 0.00 0.00 0.00 0.00 0.00 0.00 0.02 0.00 0.00 0.00 0.00 0.01 0.02 0.03 0.04 0.04 0.02 0.01 0.01 0.00 0.01 0.05 0.08 0.11 0.12 0.20 0.55 0.70 0.86 0.73 0.52 0.32 0.30 0.26 0.29 0.20 0.21 0.22 0.40 0.51 0.82 0.92
0.02 0.02 0.00 0.00 0.00 0.00 0.03 0.08 0.03 0.00 0.00 0.01 0.00 0.00 0.00 0.01 0.17 0.03 0.01 0.01 0.00 0.00 0.00 0.01 0.02 0.08 0.22 0.43 0.48 0.41 0.32 0.20 0.19 0.15 0.12 0.12 0.15 0.13 0.09 0.14 0.26 0.76 0.77 0.75
0.03 0.01 0.00 0.00 0.00 0.00 0.00 0.01 0.00 0.00 0.02 0.06 0.02 0.01 0.00 0.00 0.02 0.05 0.03 0.03 0.00 0.01 0.03 0.05 0.09 0.12 0.12 0.10 0.06 0.09 0.14 0.09 0.14 0.08 0.06 0.05 0.14 0.24 0.19 0.19 0.25 0.51 0.49 0.57
0.03 0.00 0.00 0.03 0.02 0.00 0.00 0.00 0.00 0.02 0.11 0.09 0.00 0.02 0.02 0.01 0.00 0.05 0.01 0.01 0.02 0.03 0.03 0.02 0.01 0.01 0.00 0.05 0.08 0.12 0.10 0.10 0.04 0.03 0.03 0.02 0.03 0.09 0.11 0.13 0.14 0.30 0.34 0.41
0.04 0.01 0.01 0.02 0.01 0.00 0.02 0.00 0.02 0.07 0.04 0.08 0.03 0.08 0.03 0.02 0.00 0.00 0.01 0.01 0.01 0.00 0.00 0.02 0.01 0.03 0.05 0.04 0.08 0.09 0.11 0.13 0.05 0.03 0.02 0.04 0.03 0.02 0.07 0.13 0.18 0.25 0.34 0.30
0.02 0.02 0.04 0.05 0.01 0.02 0.03 0.03 0.11 0.09 0.07 0.15 0.02 0.08 0.04 0.01 0.02 0.03 0.02 0.01 0.00 0.01 0.08 0.06 0.04 0.06 0.06 0.07 0.20 0.11 0.11 0.09 0.08 0.06 0.03 0.08 0.14 0.09 0.07 0.09 0.09 0.13 0.22 0.22
0.07 0.08 0.01 0.00 0.03 0.01 0.04 0.11 0.28 0.30 0.20 0.11 0.03 0.03 0.01 0.01 0.02 0.11 0.07 0.00 0.00 0.01 0.04 0.02 0.02 0.05 0.05 0.09 0.20 0.10 0.05 0.06 0.05 0.04 0.07 0.11 0.22 0.18 0.18 0.10 0.08 0.14 0.12 0.11
0.15 0.22 0.04 0.00 0.00 0.01 0.02 0.14 0.25 0.33 0.19 0.08 0.06 0.03 0.00 0.01 0.00 0.00 0.00 0.00 0.00 0.00 0.00 0.01 0.02 0.05 0.07 0.17 0.18 0.09 0.04 0.06 0.07 0.14 0.26 0.23 0.21 0.29 0.40 0.30 0.17 0.26 0.16 0.11
0.18 0.24 0.01 0.00 0.00 0.01 0.02 0.05 0.06 0.26 0.29 0.32 0.07 0.03 0.03 0.01 0.01 0.00 0.00 0.00 0.00 0.00 0.00 0.00 0.01 0.00 0.02 0.23 0.17 0.05 0.03 0.02 0.04 0.15 0.27 0.16 0.37 0.64 0.51 0.40 0.38 0.38 0.40 0.37
0.14 0.18 0.02 0.00 0.02 0.01 0.00 0.03 0.30 0.54 0.46 0.31 0.03 0.07 0.15 0.10 0.03 0.00 0.00 0.00 0.00 0.00 0.00 0.00 0.00 0.00 0.01 0.06 0.05 0.02 0.08 0.22 0.19 0.07 0.09 0.12 0.19 0.31 0.41 0.34 0.38 0.60 0.65 0.48
0.03 0.09 0.08 0.01 0.11 0.01 0.01 0.07 0.27 0.37 0.15 0.28 0.24 0.42 0.47 0.30 0.12 0.02 0.00 0.01 0.01 0.01 0.00 0.00 0.01 0.00 0.00 0.00 0.00 0.05 0.04 0.18 0.38 0.60 0.49 0.28 0.38 0.36 0.58 0.60 0.76 0.60 0.56 0.65
0.03 0.04 0.05 0.01 0.01 0.01 0.01 0.02 0.08 0.31 0.26 0.18 0.32 0.60 0.51 0.31 0.14 0.07 0.06 0.04 0.03 0.07 0.11 0.04 0.02 0.02 0.02 0.03 0.05 0.08 0.09 0.18 0.46 1.32 1.41 0.87 0.91 0.78 0.75 0.81 0.78 0.81 0.81 0.75
0.05 0.09 0.14 0.19 0.12 0.11 0.07 0.07 0.12 0.17 0.30 0.42 0.50 0.47 0.65 0.64 0.36 0.17 0.12 0.09 0.07 0.12 0.17 0.14 0.07 0.07 0.12 0.14 0.12 0.18 0.30 0.40 0.98 1.27 1.22 0.96 1.06 1.15 0.94 0.80 0.57 0.35 0.35 0.40
0.05 0.10 0.16 0.21 0.27 0.28 0.30 0.26 0.18 0.30 0.39 0.20 0.23 0.15 0.32 0.93 0.81 0.52 0.33 0.19 0.30 0.30 0.26 0.26 0.21 0.17 0.20 0.29 0.48 0.61 0.73 0.78 1.13 0.90 0.90 0.72 0.61 0.72 0.37 0.35 0.30 0.23 0.18 0.19
0.13 0.22 0.14 0.10 0.04 0.07 0.23 0.25 0.40 0.37 0.24 0.31 0.14 0.16 0.14 0.35 0.81 0.68 0.61 0.46 0.44 0.72 0.50 0.49 0.33 0.32 0.31 0.35 0.45 0.54 0.64 0.78 0.93 0.95 0.96 0.73 0.44 0.41 0.29 0.32 0.29 0.18 0.15 0.16
0.13 0.13 0.18 0.11 0.03 0.03 0.01 0.03 0.11 0.23 0.30 0.25 0.24 0.38 0.18 0.27 0.48 0.62 0.75 0.75 0.49 0.67 0.67 0.86 0.61 0.40 0.43 0.41 0.39 0.41 0.49 0.64 0.64 0.57 0.63 0.55 0.43 0.37 0.29 0.29 0.32 0.24 0.24 0.27
0.15 0.14 0.07 0.03 0.00 0.01 0.01 0.00 0.00 0.01 0.05 0.08 0.09 0.15 0.17 0.35 0.34 0.61 0.75 0.82 0.73 0.70 0.66 0.94 0.86 0.62 0.53 0.62 0.61 0.53 0.48 0.55 0.53 0.57 0.63 0.50 0.40 0.42 0.33 0.33 0.31 0.29 0.36 0.59
0.21 0.15 0.21 0.11 0.03 0.13 0.05 0.00 0.01 0.00 0.01 0.00 0.01 0.06 0.13 0.29 0.36 0.65 0.76 0.82 0.90 0.84 0.86 1.12 1.18 0.88 0.68 0.70 0.61 0.52 0.49 0.49 0.65 0.65 0.75 0.73 0.58 0.47 0.45 0.44 0.35 0.51 0.67 0.62
0.18 0.24 0.32 0.16 0.08 0.07 0.01 0.00 0.00 0.03 0.03 0.00 0.00 0.04 0.10 0.11 0.21 0.59 0.79 0.55 0.77 0.70 0.50 0.37 0.57 0.84 0.81 0.68 0.61 0.50 0.42 0.32 0.32 0.49 0.52 0.65 0.74 0.78 0.68 0.71 0.89 0.86 0.66 0.36
0.34 0.34 0.36 0.29 0.17 0.08 0.06 0.00 0.00 0.00 0.06 0.00 0.00 0.01 0.02 0.10 0.26 0.26 0.38 0.41 0.57 0.34 0.16 0.06 0.05 0.12 0.30 0.49 0.62 0.54 0.46 0.41 0.30 0.31 0.46 0.46 0.55 0.84 1.05 1.14 0.92 0.68 0.62 0.54
0.28 0.45 0.41 0.36 0.34 0.07 0.00 0.00 0.02 0.12 0.20 0.02 0.04 0.03 0.05 0.08 0.18 0.28 0.23 0.49 0.66 0.13 0.02 0.01 0.01 0.01 0.01 0.05 0.17 0.30 0.34 0.43 0.46 0.33 0.33 0.53 0.70 0.60 0.57 0.56 0.64 0.70 0.64 0.58
0.21 0.31 0.31 0.38 0.43 0.18 0.05 0.11 0.19 0.23 0.10 0.04 0.07 0.08 0.09 0.15 0.29 0.41 0.48 0.51 0.31 0.10 0.01 0.00 0.00 0.00 0.00 0.00 0.01 0.07 0.13 0.15 0.20 0.30 0.32 0.31 0.27 0.37 0.37 0.37 0.36 0.33 0.37 0.38
0.45 0.25 0.22 0.15 0.18 0.21 0.18 0.25 0.22 0.15 0.17 0.16 0.14 0.11 0.16 0.38 0.62 0.74 0.70 0.56 0.31 0.09 0.01 0.00 0.00 0.00 0.00 0.00 0.02 0.05 0.06 0.08 0.09 0.11 0.15 0.19 0.18 0.20 0.28 0.35 0.32 0.28 0.30 0.30
0.51 0.65 0.74 0.77 0.60 0.31 0.36 0.31 0.14 0.18 0.26 0.23 0.15 0.15 0.20 0.28 0.37 0.41 0.39 0.35 0.22 0.06 0.01 0.02 0.02 0.02 0.05 0.06 0.06 0.06 0.06 0.07 0.09 0.09 0.08 0.08 0.09 0.14 0.13 0.16 0.20 0.22 0.24 0.25
0.37 0.54 0.65 1.08 0.75 0.54 0.44 0.92 0.47 0.22 0.15 0.11 0.05 0.03 0.05 0.04 0.05 0.06 0.04 0.03 0.03 0.04 0.04 0.04 0.06 0.08 0.06 0.05 0.08 0.11 0.13 0.11 0.11 0.10 0.09 0.10 0.10 0.11 0.09 0.14 0.23 0.25 0.39 0.47
0.16 0.39 0.78 0.99 1.17 1.00 0.88 0.78 0.69 0.49 0.31 0.16 0.07 0.04 0.03 0.01 0.01 0.03 0.05 0.07 0.05 0.04 0.05 0.06 0.06 0.07 0.09 0.08 0.11 0.12 0.11 0.11 0.13 0.14 0.15 0.22 0.19 0.18 0.18 0.18 0.26 0.38 0.47 0.53

GFSCGP_prec_precacc_105.txt.gz
Total_Precipitation_Accumulation
0.01 0.00 0.00 0.00 0.00 0.00 0.00 0.00 0.02 0.00 0.00 0.00 0.00 0.01 0.02 0.03 0.04 0.04 0.02 0.01 0.01 0.00 0.01 0.05 0.08 0.11 0.12 0.20 0.55 0.70 0.86 0.73 0.52 0.32 0.30 0.26 0.29 0.20 0.21 0.22 0.40 0.51 0.82 0.92
0.03 0.02 0.01 0.00 0.00 0.01 0.03 0.08 0.03 0.00 0.01 0.04 0.02 0.00 0.00 0.01 0.17 0.03 0.01 0.01 0.00 0.00 0.00 0.01 0.02 0.08 0.22 0.43 0.48 0.41 0.32 0.20 0.19 0.15 0.12 0.12 0.15 0.13 0.09 0.14 0.26 0.76 0.77 0.75
0.06 0.02 0.00 0.01 0.01 0.01 0.00 0.01 0.00 0.00 0.04 0.13 0.06 0.03 0.00 0.00 0.02 0.05 0.03 0.03 0.00 0.01 0.03 0.05 0.09 0.12 0.12 0.10 0.06 0.09 0.14 0.09 0.14 0.08 0.06 0.05 0.14 0.24 0.19 0.19 0.25 0.51 0.49 0.57
0.04 0.00 0.01 0.04 0.04 0.01 0.00 0.00 0.00 0.02 0.16 0.18 0.10 0.08 0.02 0.01 0.00 0.05 0.01 0.01 0.02 0.03 0.03 0.02 0.01 0.01 0.00 0.05 0.08 0.12 0.12 0.13 0.05 0.03 0.03 0.02 0.03 0.09 0.11 0.13 0.14 0.30 0.34 0.41
0.06 0.01 0.01 0.03 0.02 0.01 0.02 0.00 0.02 0.09 0.10 0.11 0.08 0.20 0.03 0.03 0.01 0.00 0.01 0.01 0.01 0.00 0.00 0.02 0.01 0.03 0.05 0.04 0.08 0.09 0.11 0.17 0.09 0.03 0.02 0.04 0.03 0.02 0.07 0.13 0.18 0.25 0.34 0.30
0.02 0.02 0.06 0.05 0.01 0.02 0.04 0.04 0.16 0.15 0.11 0.16 0.02 0.11 0.04 0.02 0.02 0.03 0.02 0.02 0.00 0.01 0.08 0.06 0.04 0.06 0.06 0.07 0.20 0.11 0.11 0.09 0.09 0.06 0.03 0.08 0.14 0.09 0.07 0.09 0.09 0.13 0.22 0.22
0.07 0.08 0.02 0.01 0.05 0.02 0.05 0.13 0.31 0.39 0.26 0.11 0.03 0.03 0.01 0.01 0.02 0.12 0.08 0.01 0.00 0.01 0.04 0.02 0.02 0.05 0.05 0.09 0.20 0.10 0.05 0.06 0.05 0.05 0.07 0.11 0.22 0.18 0.18 0.10 0.08 0.14 0.12 0.11
0.15 0.24 0.05 0.00 0.01 0.02 0.03 0.15 0.26 0.34 0.19 0.08 0.06 0.03 0.00 0.01 0.01 0.01 0.02 0.01 0.01 0.00 0.00 0.01 0.02 0.05 0.07 0.17 0.18 0.09 0.04 0.06 0.07 0.14 0.26 0.23 0.22 0.29 0.40 0.30 0.17 0.26 0.16 0.11
0.31 0.41 0.03 0.01 0.01 0.01 0.02 0.05 0.07 0.28 0.35 0.37 0.09 0.05 0.03 0.03 0.26 0.07 0.02 0.00 0.00 0.00 0.00 0.00 0.01 0.00 0.02 0.23 0.17 0.05 0.03 0.02 0.04 0.15 0.27 0.17 0.42 0.64 0.51 0.40 0.38 0.38 0.40 0.37
0.22 0.56 0.05 0.01 0.02 0.01 0.00 0.03 0.31 0.58 0.70 0.60 0.07 0.12 0.22 0.24 0.69 0.24 0.00 0.00 0.00 0.00 0.00 0.00 0.00 0.00 0.01 0.06 0.05 0.02 0.08 0.22 0.19 0.07 0.12 0.16 0.26 0.35 0.42 0.34 0.38 0.60 0.65 0.48
0.15 0.40 0.12 0.02 0.12 0.02 0.01 0.10 0.29 0.42 0.21 0.57 0.44 0.69 0.71 0.70 0.45 0.10 0.00 0.01 0.01 0.01 0.00 0.00 0.01 0.00 0.00 0.01 0.02 0.05 0.04 0.18 0.39 0.62 0.53 0.32 0.43 0.42 0.61 0.60 0.76 0.60 0.56 0.65
0.04 0.08 0.07 0.03 0.02 0.02 0.02 0.03 0.10 0.40 0.37 0.36 0.52 0.89 0.91 0.69 0.17 0.07 0.06 0.04 0.03 0.07 0.11 0.04 0.02 0.02 0.02 0.04 0.08 0.10 0.11 0.20 0.48 1.35 1.43 0.89 0.95 0.82 0.76 0.81 0.78 0.82 0.81 0.75
0.09 0.12 0.16 0.22 0.14 0.22 0.13 0.08 0.14 0.20 0.34 0.49 0.70 1.11 1.02 0.69 0.36 0.17 0.12 0.09 0.07 0.12 0.17 0.14 0.07 0.07 0.12 0.15 0.16 0.21 0.31 0.44 1.06 1.31 1.23 0.96 1.10 1.20 0.97 0.81 0.57 0.36 0.36 0.40
0.06 0.12 0.21 0.31 0.30 0.31 0.31 0.30 0.23 0.38 0.42 0.28 0.35 0.38 0.47 0.93 0.81 0.52 0.33 0.19 0.30 0.30 0.26 0.26 0.21 0.17 0.21 0.30 0.49 0.64 0.77 0.82 1.21 1.00 0.93 0.74 0.69 0.82 0.41 0.36 0.30 0.24 0.19 0.19
0.13 0.33 0.25 0.14 0.08 0.12 0.43 0.52 0.60 0.47 0.25 0.47 0.27 0.32 0.16 0.35 0.81 0.68 0.61 0.46 0.44 0.72 0.50 0.49 0.33 0.32 0.31 0.36 0.47 0.56 0.68 0.85 1.03 1.06 1.03 0.78 0.49 0.60 0.39 0.37 0.30 0.20 0.17 0.17
0.15 0.30 0.34 0.24 0.11 0.16 0.16 0.24 0.23 0.25 0.36 0.35 0.27 0.50 0.22 0.27 0.48 0.62 0.75 0.75 0.49 0.67 0.67 0.86 0.61 0.40 0.43 0.41 0.42 0.49 0.56 0.67 0.68 0.66 0.73 0.63 0.47 0.43 0.38 0.38 0.37 0.28 0.26 0.28
0.17 0.17 0.18 0.15 0.02 0.01 0.10 0.03 0.01 0.01 0.05 0.08 0.11 0.26 0.22 0.35 0.34 0.61 0.75 0.82 0.73 0.70 0.66 0.94 0.86 0.62 0.53 0.63 0.63 0.64 0.64 0.66 0.62 0.64 0.75 0.62 0.48 0.50 0.41 0.42 0.36 0.37 0.40 0.63
0.21 0.15 0.21 0.11 0.03 0.24 0.19 0.02 0.02 0.00 0.01 0.00 0.01 0.06 0.13 0.29 0.37 0.67 0.78 0.83 0.91 0.84 0.86 1.12 1.18 0.88 0.68 0.70 0.63 0.62 0.64 0.65 0.83 0.82 0.86 0.89 0.72 0.60 0.54 0.55 0.44 0.58 0.75 0.66
0.18 0.24 0.32 0.16 0.10 0.11 0.01 0.00 0.00 0.04 0.03 0.00 0.00 0.04 0.10 0.11 0.22 0.64 0.83 0.58 0.79 0.70 0.50 0.37 0.57 0.84 0.81 0.69 0.63 0.59 0.60 0.55 0.53 0.75 0.79 0.82 0.92 0.96 0.85 0.81 0.96 0.93 0.74 0.41
0.34 0.34 0.37 0.29 0.18 0.12 0.07 0.00 0.00 0.01 0.08 0.01 0.00 0.01 0.02 0.10 0.27 0.28 0.42 0.45 0.60 0.34 0.16 0.06 0.05 0.12 0.30 0.49 0.62 0.57 0.58 0.61 0.52 0.56 0.74 0.73 0.77 1.03 1.25 1.28 1.03 0.78 0.73 0.68
0.28 0.45 0.41 0.36 0.35 0.07 0.00 0.00 0.02 0.12 0.23 0.04 0.05 0.03 0.05 0.08 0.19 0.30 0.25 0.52 0.68 0.13 0.02 0.01 0.01 0.01 0.01 0.05 0.17 0.31 0.37 0.51 0.63 0.54 0.57 0.75 0.87 0.77 0.79 0.80 0.82 0.86 0.81 0.76
0.21 0.31 0.31 0.38 0.44 0.19 0.05 0.11 0.20 0.26 0.13 0.06 0.09 0.09 0.10 0.16 0.31 0.41 0.48 0.52 0.31 0.10 0.01 0.00 0.00 0.00 0.00 0.00 0.01 0.07 0.13 0.16 0.23 0.36 0.41 0.41 0.41 0.54 0.56 0.61 0.61 0.57 0.59 0.63
0.46 0.25 0.22 0.16 0.20 0.23 0.18 0.25 0.24 0.15 0.18 0.18 0.15 0.11 0.16 0.38 0.62 0.74 0.70 0.56 0.31 0.09 0.01 0.00 0.00 0.00 0.00 0.00 0.02 0.05 0.06 0.08 0.09 0.11 0.16 0.22 0.22 0.24 0.35 0.48 0.50 0.48 0.52 0.52
0.52 0.65 0.74 0.78 0.62 0.32 0.36 0.32 0.14 0.19 0.27 0.23 0.15 0.15 0.20 0.28 0.37 0.41 0.39 0.35 0.22 0.06 0.01 0.02 0.02 0.02 0.05 0.06 0.06 0.07 0.06 0.07 0.09 0.09 0.08 0.08 0.10 0.15 0.15 0.18 0.25 0.31 0.37 0.42
0.37 0.54 0.66 1.09 0.76 0.54 0.45 0.92 0.48 0.22 0.15 0.11 0.05 0.03 0.05 0.04 0.05 0.06 0.04 0.03 0.03 0.04 0.04 0.04 0.06 0.08 0.06 0.05 0.08 0.11 0.13 0.11 0.11 0.10 0.10 0.10 0.10 0.11 0.09 0.14 0.24 0.27 0.42 0.51
0.16 0.39 0.79 1.01 1.18 1.01 0.89 0.78 0.69 0.49 0.31 0.16 0.07 0.04 0.03 0.01 0.01 0.03 0.05 0.07 0.05 0.04 0.05 0.06 0.06 0.07 0.09 0.08 0.12 0.13 0.11 0.11 0.13 0.15 0.15 0.22 0.20 0.18 0.18 0.18 0.26 0.38 0.48 0.53

GFSCGP_prec_precacc_111.txt.gz
Total_Precipitation_Accumulation
0.01 0.00 0.01 0.00 0.00 0.01 0.01 0.01 0.03 0.01 0.00 0.00 0.00 0.01 0.02 0.03 0.04 0.04 0.02 0.01 0.01 0.00 0.01 0.05 0.08 0.11 0.12 0.20 0.55 0.70 0.86 0.73 0.52 0.32 0.30 0.26 0.29 0.20 0.21 0.22 0.40 0.51 0.82 0.92
0.04 0.04 0.01 0.00 0.01 0.03 0.05 0.09 0.04 0.01 0.01 0.06 0.04 0.01 0.00 0.01 0.17 0.03 0.01 0.01 0.00 0.00 0.00 0.01 0.02 0.08 0.22 0.43 0.48 0.41 0.32 0.20 0.19 0.15 0.12 0.12 0.15 0.13 0.09 0.14 0.26 0.76 0.77 0.75
0.07 0.03 0.00 0.01 0.02 0.02 0.02 0.02 0.00 0.01 0.05 0.17 0.10 0.03 0.00 0.00 0.02 0.05 0.03 0.03 0.00 0.01 0.03 0.05 0.09 0.12 0.12 0.10 0.06 0.09 0.14 0.09 0.14 0.08 0.06 0.06 0.15 0.26 0.21 0.19 0.25 0.51 0.49 0.57
0.04 0.00 0.01 0.04 0.04 0.04 0.06 0.02 0.01 0.02 0.17 0.20 0.17 0.10 0.02 0.01 0.00 0.05 0.01 0.01 0.02 0.03 0.03 0.02 0.01 0.01 0.00 0.05 0.08 0.12 0.12 0.15 0.07 0.11 0.08 0.05 0.04 0.09 0.11 0.13 0.15 0.30 0.34 0.41
0.06 0.01 0.02 0.03 0.02 0.02 0.02 0.01 0.04 0.09 0.12 0.16 0.12 0.23 0.04 0.05 0.02 0.03 0.02 0.01 0.01 0.00 0.00 0.02 0.01 0.03 0.05 0.04 0.08 0.09 0.12 0.21 0.16 0.12 0.12 0.16 0.07 0.05 0.08 0.15 0.20 0.25 0.34 0.30
0.02 0.02 0.07 0.05 0.01 0.02 0.06 0.06 0.20 0.22 0.16 0.20 0.02 0.12 0.04 0.05 0.12 0.12 0.10 0.06 0.02 0.02 0.08 0.06 0.04 0.06 0.06 0.07 0.20 0.11 0.11 0.10 0.12 0.12 0.09 0.11 0.17 0.11 0.08 0.10 0.09 0.13 0.22 0.22
0.07 0.08 0.02 0.01 0.05 0.03 0.06 0.16 0.36 0.50 0.38 0.13 0.03 0.05 0.03 0.15 0.18 0.29 0.19 0.07 0.03 0.01 0.05 0.02 0.02 0.05 0.05 0.09 0.20 0.10 0.05 0.06 0.05 0.05 0.09 0.15 0.31 0.19 0.18 0.10 0.08 0.14 0.12 0.11
0.15 0.24 0.05 0.01 0.02 0.03 0.06 0.15 0.29 0.57 0.39 0.13 0.09 0.06 0.06 0.14 0.36 0.26 0.09 0.04 0.03 0.01 0.01 0.01 0.02 0.05 0.07 0.17 0.18 0.09 0.04 0.06 0.07 0.14 0.26 0.25 0.26 0.32 0.44 0.30 0.17 0.26 0.16 0.11
0.33 0.42 0.03 0.02 0.03 0.03 0.03 0.07 0.09 0.35 0.44 0.42 0.12 0.22 0.35 0.15 0.44 0.76 0.42 0.07 0.03 0.02 0.01 0.00 0.01 0.00 0.02 0.23 0.17 0.05 0.03 0.02 0.04 0.15 0.27 0.17 0.44 0.68 0.53 0.44 0.41 0.40 0.41 0.39
0.33 0.78 0.07 0.05 0.07 0.04 0.02 0.08 0.36 0.64 0.80 0.68 0.12 0.41 0.93 0.91 1.00 1.05 0.70 0.25 0.08 0.04 0.04 0.01 0.00 0.00 0.01 0.06 0.05 0.02 0.08 0.22 0.19 0.07 0.13 0.20 0.32 0.44 0.50 0.38 0.40 0.64 0.69 0.50
0.23 0.81 0.18 0.03 0.14 0.03 0.02 0.11 0.31 0.45 0.26 0.77 0.82 1.04 1.10 1.49 1.15 0.76 0.73 0.40 0.11 0.07 0.06 0.07 0.03 0.00 0.00 0.01 0.02 0.07 0.06 0.18 0.39 0.63 0.57 0.37 0.50 0.50 0.72 0.70 0.81 0.65 0.62 0.69
0.05 0.23 0.10 0.04 0.03 0.03 0.03 0.04 0.12 0.42 0.53 0.68 1.11 1.56 1.85 1.28 0.54 0.34 0.36 0.39 0.18 0.10 0.12 0.06 0.04 0.02 0.02 0.04 0.08 0.13 0.15 0.23 0.50 1.37 1.48 0.97 1.09 0.94 0.88 0.93 0.85 0.88 0.88 0.82
0.09 0.17 0.18 0.25 0.17 0.35 0.20 0.10 0.15 0.25 0.55 1.18 1.19 1.71 1.72 1.04 0.48 0.27 0.20 0.18 0.13 0.12 0.17 0.14 0.07 0.07 0.12 0.15 0.16 0.23 0.36 0.51 1.10 1.34 1.28 1.05 1.17 1.29 1.07 0.92 0.69 0.46 0.43 0.46
0.07 0.14 0.23 0.38 0.40 0.52 0.51 0.41 0.31 0.61 0.94 0.72 0.65 0.77 0.78 1.11 0.92 0.58 0.35 0.20 0.30 0.30 0.26 0.26 0.21 0.17 0.21 0.30 0.50 0.67 0.80 0.88 1.25 1.07 1.00 0.78 0.76 0.90 0.51 0.43 0.38 0.31 0.25 0.23
0.14 0.40 0.36 0.34 0.44 0.34 0.57 0.90 0.98 0.80 0.61 0.71 0.74 0.53 0.32 0.46 0.87 0.73 0.62 0.46 0.44 0.72 0.50 0.49 0.33 0.32 0.31 0.36 0.47 0.57 0.70 0.90 1.07 1.09 1.09 0.82 0.56 0.71 0.57 0.62 0.52 0.31 0.26 0.22
0.17 0.59 0.71 0.55 0.43 0.28 0.42 0.60 0.44 0.56 0.84 0.73 0.41 0.63 0.36 0.34 0.51 0.63 0.75 0.75 0.49 0.67 0.67 0.86 0.61 0.40 0.43 0.41 0.42 0.49 0.57 0.69 0.70 0.72 0.87 0.77 0.60 0.58 0.61 0.63 0.66 0.53 0.46 0.51
0.20 0.31 0.37 0.31 0.16 0.10 0.37 0.50 0.19 0.19 0.18 0.17 0.14 0.33 0.32 0.42 0.37 0.65 0.78 0.83 0.74 0.70 0.66 0.94 0.86 0.63 0.53 0.63 0.64 0.64 0.65 0.70 0.65 0.66 0.77 0.72 0.63 0.71 0.66 0.81 0.86 0.85 0.79 0.96
0.22 0.16 0.26 0.14 0.09 0.33 0.52 0.20 0.08 0.02 0.02 0.02 0.04 0.11 0.17 0.31 0.41 0.71 0.82 0.85 0.92 0.84 0.86 1.12 1.18 0.88 0.69 0.70 0.63 0.62 0.64 0.67 0.88 0.86 0.89 0.94 0.83 0.74 0.74 0.82 0.82 1.19 1.56 1.27
0.18 0.24 0.39 0.30 0.16 0.24 0.15 0.05 0.03 0.07 0.07 0.04 0.03 0.08 0.14 0.16 0.24 0.65 0.86 0.60 0.80 0.70 0.50 0.37 0.57 0.84 0.81 0.69 0.63 0.59 0.60 0.55 0.55 0.83 0.93 0.95 1.05 1.15 1.10 1.08 1.26 1.28 1.19 0.96
0.34 0.35 0.46 0.42 0.24 0.20 0.09 0.00 0.00 0.01 0.11 0.05 0.03 0.03 0.04 0.12 0.28 0.30 0.45 0.46 0.60 0.34 0.16 0.06 0.05 0.12 0.30 0.49 0.62 0.57 0.58 0.61 0.53 0.62 0.83 0.97 1.05 1.32 1.53 1.65 1.48 1.21 1.14 1.18
0.28 0.45 0.44 0.41 0.35 0.08 0.01 0.01 0.02 0.13 0.28 0.09 0.08 0.05 0.05 0.09 0.20 0.32 0.26 0.52 0.68 0.13 0.02 0.01 0.01 0.01 0.02 0.05 0.17 0.31 0.37 0.51 0.64 0.55 0.61 0.84 1.10 1.12 1.22 1.26 1.31 1.36 1.32 1.22
0.21 0.31 0.31 0.38 0.44 0.20 0.06 0.12 0.22 0.30 0.16 0.09 0.11 0.09 0.10 0.16 0.31 0.41 0.48 0.52 0.31 0.10 0.01 0.00 0.00 0.00 0.00 0.00 0.01 0.07 0.14 0.16 0.23 0.36 0.42 0.44 0.47 0.64 0.74 0.84 0.97 0.98 1.02 1.08
0.46 0.25 0.22 0.16 0.22 0.27 0.21 0.29 0.27 0.17 0.20 0.21 0.16 0.11 0.16 0.38 0.62 0.74 0.70 0.56 0.31 0.09 0.01 0.00 0.00 0.00 0.00 0.00 0.02 0.06 0.09 0.09 0.09 0.11 0.16 0.22 0.22 0.25 0.39 0.54 0.61 0.66 0.74 0.77
0.53 0.66 0.74 0.79 0.64 0.34 0.38 0.34 0.16 0.19 0.27 0.23 0.15 0.15 0.20 0.28 0.37 0.41 0.39 0.35 0.22 0.06 0.01 0.02 0.02 0.02 0.05 0.06 0.06 0.08 0.07 0.07 0.09 0.09 0.08 0.08 0.10 0.15 0.15 0.19 0.26 0.33 0.41 0.50
0.37 0.54 0.66 1.10 0.78 0.55 0.46 0.93 0.48 0.22 0.15 0.11 0.05 0.03 0.05 0.04 0.05 0.06 0.04 0.03 0.03 0.04 0.04 0.04 0.06 0.08 0.06 0.05 0.08 0.11 0.13 0.11 0.11 0.10 0.10 0.10 0.10 0.11 0.09 0.15 0.25 0.27 0.45 0.53
0.16 0.40 0.79 1.01 1.18 1.01 0.90 0.79 0.69 0.49 0.31 0.16 0.07 0.04 0.03 0.01 0.01 0.03 0.05 0.07 0.05 0.04 0.05 0.06 0.06 0.07 0.09 0.09 0.12 0.13 0.12 0.11 0.13 0.15 0.16 0.23 0.20 0.19 0.18 0.19 0.27 0.39 0.49 0.54